| time (UTC) | temp F | wind direction | speed MPH | gust MPH | rain 1hr in | rain 24hr in | rain mn in | humidity % | barometer mb |
| 20260503040005 | 54 | 239 | 2.0 | 4.0 | 0.00 | 0.00 | 0.00 | 78 | 1018.2 |
| 20260503035902 | 54 | 241 | 2.0 | 4.0 | 0.00 | 0.00 | 0.00 | 78 | 1018.2 |
| 20260503035804 | 54 | 244 | 2.0 | 4.0 | 0.00 | 0.00 | 0.00 | 78 | 1018.2 |
| 20260503035704 | 54 | 241 | 2.0 | 4.0 | 0.00 | 0.00 | 0.00 | 78 | 1018.2 |
| 20260503035602 | 54 | 241 | 2.0 | 4.0 | 0.00 | 0.00 | 0.00 | 78 | 1018.2 |
| 20260503035504 | 54 | 240 | 2.0 | 4.0 | 0.00 | 0.00 | 0.00 | 77 | 1018.2 |
| 20260503035404 | 54 | 237 | 2.0 | 4.0 | 0.00 | 0.00 | 0.00 | 78 | 1018.2 |
| 20260503035304 | 54 | 235 | 2.0 | 4.0 | 0.00 | 0.00 | 0.00 | 78 | 1018.2 |
| 20260503035204 | 54 | 235 | 3.0 | 4.0 | 0.00 | 0.00 | 0.00 | 78 | 1018.2 |
| 20260503035103 | 54 | 236 | 2.0 | 4.0 | 0.00 | 0.00 | 0.00 | 78 | 1018.2 |
| 20260503035002 | 54 | 236 | 2.0 | 4.0 | 0.00 | 0.00 | 0.00 | 78 | 1018.1 |
| 20260503034904 | 54 | 236 | 2.0 | 4.0 | 0.00 | 0.00 | 0.00 | 77 | 1018.1 |
| 20260503034804 | 54 | 234 | 2.0 | 4.0 | 0.00 | 0.00 | 0.00 | 77 | 1018.1 |
| 20260503034701 | 54 | 233 | 1.0 | 4.0 | 0.00 | 0.00 | 0.00 | 77 | 1018.1 |
| 20260503034603 | 54 | 233 | 1.0 | 4.0 | 0.00 | 0.00 | 0.00 | 77 | 1018.1 |
| 20260503034503 | 54 | 234 | 1.0 | 4.0 | 0.00 | 0.00 | 0.00 | 77 | 1018.2 |
| 20260503034403 | 54 | 237 | 1.0 | 3.0 | 0.00 | 0.00 | 0.00 | 77 | 1018.1 |
| 20260503034401 | 54 | 239 | 1.0 | 2.0 | 0.00 | 0.00 | 0.00 | 77 | 1018.2 |
| 20260503034303 | 54 | 239 | 1.0 | 2.0 | 0.00 | 0.00 | 0.00 | 77 | 1018.2 |
| 20260503034203 | 54 | 241 | 1.0 | 2.0 | 0.00 | 0.00 | 0.00 | 77 | 1018.1 |
| 20260503034103 | 54 | 242 | 1.0 | 2.0 | 0.00 | 0.00 | 0.00 | 77 | 1018.2 |
| 20260503034101 | 54 | 244 | 1.0 | 2.0 | 0.00 | 0.00 | 0.00 | 77 | 1018.1 |
| 20260503034003 | 54 | 244 | 1.0 | 2.0 | 0.00 | 0.00 | 0.00 | 77 | 1018.1 |
| 20260503033903 | 54 | 243 | 1.0 | 2.0 | 0.00 | 0.00 | 0.00 | 77 | 1018.1 |
| 20260503033802 | 54 | 242 | 1.0 | 3.0 | 0.00 | 0.00 | 0.00 | 77 | 1018.1 |
| 20260503033704 | 54 | 243 | 1.0 | 3.0 | 0.00 | 0.00 | 0.00 | 77 | 1018.0 |
| 20260503033604 | 54 | 243 | 1.0 | 3.0 | 0.00 | 0.00 | 0.00 | 77 | 1018.0 |
| 20260503033504 | 54 | 242 | 1.0 | 3.0 | 0.00 | 0.00 | 0.00 | 77 | 1018.1 |
| 20260503033501 | 54 | 242 | 1.0 | 3.0 | 0.00 | 0.00 | 0.00 | 76 | 1018.1 |
| 20260503033403 | 54 | 242 | 1.0 | 3.0 | 0.00 | 0.00 | 0.00 | 76 | 1018.1 |
| 20260503033304 | 54 | 242 | 1.0 | 3.0 | 0.00 | 0.00 | 0.00 | 76 | 1018.1 |
| 20260503033202 | 54 | 242 | 1.0 | 3.0 | 0.00 | 0.00 | 0.00 | 77 | 1018.1 |
| 20260503033104 | 54 | 241 | 1.0 | 3.0 | 0.00 | 0.00 | 0.00 | 77 | 1018.1 |
| 20260503033004 | 54 | 240 | 1.0 | 3.0 | 0.00 | 0.00 | 0.00 | 76 | 1018.2 |
| 20260503032901 | 54 | 241 | 1.0 | 3.0 | 0.00 | 0.00 | 0.00 | 76 | 1018.2 |
| 20260503032803 | 54 | 242 | 1.0 | 3.0 | 0.00 | 0.00 | 0.00 | 76 | 1018.3 |
| 20260503032705 | 54 | 243 | 1.0 | 3.0 | 0.00 | 0.00 | 0.00 | 76 | 1018.3 |
| 20260503032602 | 54 | 243 | 1.0 | 3.0 | 0.00 | 0.00 | 0.00 | 76 | 1018.3 |
| 20260503032504 | 54 | 244 | 1.0 | 3.0 | 0.00 | 0.00 | 0.00 | 76 | 1018.1 |
| 20260503032404 | 54 | 246 | 1.0 | 3.0 | 0.00 | 0.00 | 0.00 | 76 | 1018.2 |
| 20260503032304 | 54 | 249 | 1.0 | 3.0 | 0.00 | 0.00 | 0.00 | 76 | 1018.1 |
| 20260503032204 | 54 | 250 | 1.0 | 3.0 | 0.00 | 0.00 | 0.00 | 76 | 1018.2 |
| 20260503032104 | 54 | 252 | 1.0 | 3.0 | 0.00 | 0.00 | 0.00 | 76 | 1018.2 |
| 20260503032001 | 55 | 255 | 1.0 | 2.0 | 0.00 | 0.00 | 0.00 | 75 | 1018.2 |
| 20260503031903 | 55 | 255 | 1.0 | 2.0 | 0.00 | 0.00 | 0.00 | 75 | 1018.2 |
| 20260503031804 | 55 | 259 | 1.0 | 2.0 | 0.00 | 0.00 | 0.00 | 75 | 1018.1 |
| 20260503031702 | 55 | 270 | 0.0 | 2.0 | 0.00 | 0.00 | 0.00 | 75 | 1018.2 |
| 20260503031604 | 55 | 270 | 0.0 | 2.0 | 0.00 | 0.00 | 0.00 | 75 | 1018.2 |
| 20260503031503 | 55 | 279 | 0.0 | 1.0 | 0.00 | 0.00 | 0.00 | 75 | 1018.2 |
| 20260503031403 | 55 | 284 | 0.0 | 1.0 | 0.00 | 0.00 | 0.00 | 76 | 1018.2 |
| 20260503031401 | 55 | 283 | 0.0 | 1.0 | 0.00 | 0.00 | 0.00 | 75 | 1018.2 |
| 20260503031304 | 55 | 283 | 0.0 | 1.0 | 0.00 | 0.00 | 0.00 | 75 | 1018.2 |
| 20260503031204 | 55 | 281 | 1.0 | 2.0 | 0.00 | 0.00 | 0.00 | 75 | 1018.2 |
| 20260503031104 | 55 | 276 | 1.0 | 2.0 | 0.00 | 0.00 | 0.00 | 75 | 1018.3 |
| 20260503031101 | 55 | 271 | 1.0 | 2.0 | 0.00 | 0.00 | 0.00 | 75 | 1018.2 |
| 20260503031003 | 55 | 271 | 1.0 | 2.0 | 0.00 | 0.00 | 0.00 | 75 | 1018.2 |
| 20260503030903 | 55 | 270 | 1.0 | 2.0 | 0.00 | 0.00 | 0.00 | 75 | 1018.2 |
| 20260503030803 | 55 | 269 | 1.0 | 2.0 | 0.00 | 0.00 | 0.00 | 75 | 1018.2 |
| 20260503030801 | 55 | 265 | 1.0 | 2.0 | 0.00 | 0.00 | 0.00 | 76 | 1018.2 |
| 20260503030705 | 55 | 262 | 1.0 | 2.0 | 0.00 | 0.00 | 0.00 | 76 | 1018.2 |
| 20260503030605 | 55 | 262 | 1.0 | 2.0 | 0.00 | 0.00 | 0.00 | 76 | 1018.2 |
| 20260503030504 | 55 | 256 | 1.0 | 2.0 | 0.00 | 0.00 | 0.00 | 76 | 1018.2 |
| 20260503030501 | 55 | 248 | 1.0 | 2.0 | 0.00 | 0.00 | 0.00 | 76 | 1018.3 |
| 20260503030404 | 55 | 248 | 1.0 | 2.0 | 0.00 | 0.00 | 0.00 | 76 | 1018.3 |
| 20260503030303 | 55 | 247 | 1.0 | 3.0 | 0.00 | 0.00 | 0.00 | 75 | 1018.2 |
| 20260503030202 | 55 | 245 | 1.0 | 3.0 | 0.00 | 0.00 | 0.00 | 75 | 1018.2 |
| 20260503030103 | 55 | 239 | 1.0 | 3.0 | 0.00 | 0.00 | 0.00 | 76 | 1018.1 |
| 20260503030004 | 55 | 232 | 1.0 | 4.0 | 0.00 | 0.00 | 0.00 | 76 | 1018.2 |
| 20260503025903 | 55 | 229 | 1.0 | 4.0 | 0.00 | 0.00 | 0.00 | 76 | 1018.1 |
| 20260503025901 | 55 | 230 | 1.0 | 6.0 | 0.00 | 0.00 | 0.00 | 75 | 1018.2 |
| 20260503025803 | 55 | 230 | 1.0 | 6.0 | 0.00 | 0.00 | 0.00 | 75 | 1018.2 |
| 20260503025705 | 55 | 234 | 2.0 | 6.0 | 0.00 | 0.00 | 0.00 | 75 | 1018.2 |
| 20260503025602 | 55 | 234 | 2.0 | 6.0 | 0.00 | 0.00 | 0.00 | 75 | 1018.2 |
| 20260503025504 | 55 | 237 | 2.0 | 6.0 | 0.00 | 0.00 | 0.00 | 75 | 1018.2 |
| 20260503025404 | 55 | 240 | 2.0 | 6.0 | 0.00 | 0.00 | 0.00 | 75 | 1018.2 |
| 20260503025305 | 55 | 243 | 2.0 | 6.0 | 0.00 | 0.00 | 0.00 | 75 | 1018.2 |
| 20260503025204 | 55 | 245 | 2.0 | 6.0 | 0.00 | 0.00 | 0.00 | 75 | 1018.2 |
| 20260503025104 | 55 | 251 | 2.0 | 6.0 | 0.00 | 0.00 | 0.00 | 75 | 1018.2 |
| 20260503025004 | 55 | 254 | 2.0 | 6.0 | 0.00 | 0.00 | 0.00 | 75 | 1018.2 |
| 20260503025001 | 55 | 252 | 2.0 | 6.0 | 0.00 | 0.00 | 0.00 | 75 | 1018.2 |
| 20260503024903 | 55 | 252 | 2.0 | 6.0 | 0.00 | 0.00 | 0.00 | 75 | 1018.2 |
| 20260503024803 | 55 | 249 | 2.0 | 6.0 | 0.00 | 0.00 | 0.00 | 76 | 1018.2 |
| 20260503024703 | 55 | 244 | 2.0 | 6.0 | 0.00 | 0.00 | 0.00 | 76 | 1018.2 |
| 20260503024605 | 55 | 244 | 2.0 | 6.0 | 0.00 | 0.00 | 0.00 | 76 | 1018.2 |
| 20260503024505 | 55 | 241 | 2.0 | 6.0 | 0.00 | 0.00 | 0.00 | 76 | 1018.2 |
| 20260503024402 | 55 | 239 | 2.0 | 6.0 | 0.00 | 0.00 | 0.00 | 76 | 1018.2 |
| 20260503024304 | 55 | 236 | 2.0 | 6.0 | 0.00 | 0.00 | 0.00 | 76 | 1018.3 |
| 20260503024203 | 55 | 234 | 2.0 | 6.0 | 0.00 | 0.00 | 0.00 | 76 | 1018.1 |
| 20260503024102 | 55 | 232 | 2.0 | 6.0 | 0.00 | 0.00 | 0.00 | 76 | 1018.3 |
| 20260503024004 | 55 | 233 | 2.0 | 6.0 | 0.00 | 0.00 | 0.00 | 76 | 1018.2 |
| 20260503023904 | 55 | 235 | 2.0 | 4.0 | 0.00 | 0.00 | 0.00 | 76 | 1018.3 |
| 20260503023804 | 55 | 237 | 2.0 | 4.0 | 0.00 | 0.00 | 0.00 | 76 | 1018.2 |
| 20260503023801 | 55 | 240 | 2.0 | 4.0 | 0.00 | 0.00 | 0.00 | 76 | 1018.2 |
| 20260503023703 | 55 | 241 | 2.0 | 4.0 | 0.00 | 0.00 | 0.00 | 76 | 1018.2 |
| 20260503023603 | 55 | 241 | 2.0 | 4.0 | 0.00 | 0.00 | 0.00 | 76 | 1018.2 |
| 20260503023501 | 55 | 239 | 2.0 | 4.0 | 0.00 | 0.00 | 0.00 | 76 | 1018.3 |
| 20260503023403 | 54 | 240 | 2.0 | 4.0 | 0.00 | 0.00 | 0.00 | 76 | 1018.2 |
| 20260503023304 | 54 | 238 | 2.0 | 4.0 | 0.00 | 0.00 | 0.00 | 76 | 1018.3 |
| 20260503023201 | 54 | 236 | 2.0 | 6.0 | 0.00 | 0.00 | 0.00 | 76 | 1018.3 |
| 20260503023103 | 54 | 233 | 2.0 | 6.0 | 0.00 | 0.00 | 0.00 | 76 | 1018.3 |
| 20260503023003 | 54 | 230 | 3.0 | 6.0 | 0.00 | 0.00 | 0.00 | 76 | 1018.3 |
| 20260503022902 | 54 | 230 | 3.0 | 6.0 | 0.00 | 0.00 | 0.00 | 76 | 1018.3 |
| 20260503022804 | 54 | 229 | 3.0 | 6.0 | 0.00 | 0.00 | 0.00 | 76 | 1018.3 |
| 20260503022704 | 54 | 228 | 3.0 | 6.0 | 0.00 | 0.00 | 0.00 | 76 | 1018.3 |
| 20260503022601 | 54 | 228 | 3.0 | 6.0 | 0.00 | 0.00 | 0.00 | 76 | 1018.3 |
| 20260503022503 | 54 | 227 | 3.0 | 6.0 | 0.00 | 0.00 | 0.00 | 76 | 1018.3 |
| 20260503022403 | 54 | 226 | 3.0 | 6.0 | 0.00 | 0.00 | 0.00 | 76 | 1018.3 |
| 20260503022301 | 54 | 225 | 3.0 | 6.0 | 0.00 | 0.00 | 0.00 | 76 | 1018.2 |
| 20260503022205 | 54 | 225 | 3.0 | 6.0 | 0.00 | 0.00 | 0.00 | 76 | 1018.2 |
| 20260503022105 | 54 | 226 | 3.0 | 6.0 | 0.00 | 0.00 | 0.00 | 76 | 1018.3 |
| 20260503022002 | 55 | 227 | 3.0 | 6.0 | 0.00 | 0.00 | 0.00 | 76 | 1018.3 |
| 20260503021904 | 55 | 227 | 4.0 | 6.0 | 0.00 | 0.00 | 0.00 | 76 | 1018.3 |
| 20260503021804 | 55 | 227 | 4.0 | 6.0 | 0.00 | 0.00 | 0.00 | 76 | 1018.4 |
| 20260503021701 | 54 | 226 | 4.0 | 6.0 | 0.00 | 0.00 | 0.00 | 76 | 1018.4 |
| 20260503021603 | 54 | 226 | 4.0 | 6.0 | 0.00 | 0.00 | 0.00 | 76 | 1018.4 |
| 20260503021503 | 54 | 227 | 4.0 | 6.0 | 0.00 | 0.00 | 0.00 | 76 | 1018.3 |
| 20260503021403 | 54 | 227 | 3.0 | 6.0 | 0.00 | 0.00 | 0.00 | 76 | 1018.4 |
| 20260503021303 | 54 | 228 | 3.0 | 6.0 | 0.00 | 0.00 | 0.00 | 76 | 1018.3 |
| 20260503021203 | 54 | 228 | 3.0 | 4.0 | 0.00 | 0.00 | 0.00 | 76 | 1018.4 |
| 20260503021102 | 54 | 228 | 3.0 | 4.0 | 0.00 | 0.00 | 0.00 | 76 | 1018.4 |
| 20260503021004 | 54 | 228 | 3.0 | 4.0 | 0.00 | 0.00 | 0.00 | 76 | 1018.4 |
| 20260503020904 | 55 | 228 | 2.0 | 4.0 | 0.00 | 0.00 | 0.00 | 76 | 1018.3 |
| 20260503020804 | 55 | 228 | 2.0 | 4.0 | 0.00 | 0.00 | 0.00 | 75 | 1018.4 |
| 20260503020801 | 55 | 228 | 2.0 | 3.0 | 0.00 | 0.00 | 0.00 | 75 | 1018.4 |
| 20260503020703 | 55 | 229 | 1.0 | 3.0 | 0.00 | 0.00 | 0.00 | 75 | 1018.4 |
| 20260503020603 | 55 | 229 | 1.0 | 3.0 | 0.00 | 0.00 | 0.00 | 75 | 1018.4 |
| 20260503020502 | 55 | 229 | 1.0 | 3.0 | 0.00 | 0.00 | 0.00 | 75 | 1018.4 |
| 20260503020404 | 55 | 229 | 1.0 | 3.0 | 0.00 | 0.00 | 0.00 | 75 | 1018.4 |
| 20260503020304 | 55 | 229 | 1.0 | 3.0 | 0.00 | 0.00 | 0.00 | 75 | 1018.4 |
| 20260503020202 | 55 | 231 | 1.0 | 3.0 | 0.00 | 0.00 | 0.00 | 75 | 1018.3 |
| 20260503020004 | 55 | 233 | 1.0 | 3.0 | 0.00 | 0.00 | 0.00 | 75 | 1018.3 |
| 20260503015903 | 55 | 233 | 1.0 | 3.0 | 0.00 | 0.00 | 0.00 | 75 | 1018.4 |
| 20260503015901 | 55 | 232 | 1.0 | 3.0 | 0.00 | 0.00 | 0.00 | 75 | 1018.4 |
| 20260503015804 | 55 | 232 | 1.0 | 3.0 | 0.00 | 0.00 | 0.00 | 75 | 1018.4 |
| 20260503015704 | 55 | 231 | 2.0 | 3.0 | 0.00 | 0.00 | 0.00 | 76 | 1018.3 |
| 20260503015602 | 55 | 231 | 2.0 | 3.0 | 0.00 | 0.00 | 0.00 | 76 | 1018.3 |
| 20260503015504 | 55 | 230 | 2.0 | 4.0 | 0.00 | 0.00 | 0.00 | 76 | 1018.4 |
| 20260503015404 | 55 | 229 | 2.0 | 4.0 | 0.00 | 0.00 | 0.00 | 76 | 1018.4 |
| 20260503015305 | 55 | 229 | 2.0 | 4.0 | 0.00 | 0.00 | 0.00 | 76 | 1018.4 |
| 20260503015301 | 54 | 229 | 2.0 | 4.0 | 0.00 | 0.00 | 0.00 | 76 | 1018.4 |
| 20260503015204 | 54 | 229 | 2.0 | 4.0 | 0.00 | 0.00 | 0.00 | 76 | 1018.4 |
| 20260503015104 | 54 | 229 | 2.0 | 4.0 | 0.00 | 0.00 | 0.00 | 76 | 1018.4 |
| 20260503015002 | 54 | 228 | 2.0 | 4.0 | 0.00 | 0.00 | 0.00 | 76 | 1018.4 |
| 20260503014904 | 54 | 228 | 2.0 | 4.0 | 0.00 | 0.00 | 0.00 | 76 | 1018.4 |
| 20260503014804 | 55 | 229 | 2.0 | 4.0 | 0.00 | 0.00 | 0.00 | 76 | 1018.5 |
| 20260503014703 | 55 | 230 | 2.0 | 4.0 | 0.00 | 0.00 | 0.00 | 75 | 1018.5 |
| 20260503014605 | 55 | 230 | 2.0 | 4.0 | 0.00 | 0.00 | 0.00 | 75 | 1018.5 |
| 20260503014505 | 55 | 232 | 2.0 | 4.0 | 0.00 | 0.00 | 0.00 | 75 | 1018.4 |
| 20260503014402 | 55 | 234 | 2.0 | 4.0 | 0.00 | 0.00 | 0.00 | 75 | 1018.5 |
| 20260503014305 | 55 | 236 | 2.0 | 4.0 | 0.00 | 0.00 | 0.00 | 75 | 1018.5 |
| 20260503014204 | 55 | 242 | 2.0 | 3.0 | 0.00 | 0.00 | 0.00 | 75 | 1018.5 |
| 20260503014102 | 55 | 242 | 1.0 | 3.0 | 0.00 | 0.00 | 0.00 | 75 | 1018.4 |
| 20260503014004 | 55 | 247 | 1.0 | 3.0 | 0.00 | 0.00 | 0.00 | 75 | 1018.5 |
| 20260503013904 | 55 | 248 | 1.0 | 3.0 | 0.00 | 0.00 | 0.00 | 74 | 1018.4 |
| 20260503013801 | 55 | 251 | 1.0 | 3.0 | 0.00 | 0.00 | 0.00 | 74 | 1018.5 |
| 20260503013705 | 55 | 261 | 1.0 | 3.0 | 0.00 | 0.00 | 0.00 | 74 | 1018.4 |
| 20260503013605 | 55 | 261 | 1.0 | 3.0 | 0.00 | 0.00 | 0.00 | 74 | 1018.4 |
| 20260503013501 | 56 | 270 | 1.0 | 3.0 | 0.00 | 0.00 | 0.00 | 74 | 1018.5 |
| 20260503013403 | 56 | 279 | 0.0 | 3.0 | 0.00 | 0.00 | 0.00 | 74 | 1018.6 |
| 20260503013303 | 56 | 289 | 0.0 | 1.0 | 0.00 | 0.00 | 0.00 | 74 | 1018.5 |
| 20260503013202 | 56 | 289 | 0.0 | 1.0 | 0.00 | 0.00 | 0.00 | 73 | 1018.4 |
| 20260503013104 | 56 | 289 | 0.0 | 1.0 | 0.00 | 0.00 | 0.00 | 73 | 1018.5 |
| 20260503013004 | 56 | 289 | 0.0 | 1.0 | 0.00 | 0.00 | 0.00 | 73 | 1018.4 |
| 20260503012901 | 56 | 289 | 0.0 | 1.0 | 0.00 | 0.00 | 0.00 | 73 | 1018.5 |
| 20260503012804 | 56 | 289 | 0.0 | 1.0 | 0.00 | 0.00 | 0.00 | 73 | 1018.5 |
| 20260503012704 | 56 | 289 | 0.0 | 1.0 | 0.00 | 0.00 | 0.00 | 73 | 1018.5 |
| 20260503012602 | 56 | 289 | 0.0 | 1.0 | 0.00 | 0.00 | 0.00 | 73 | 1018.5 |
| 20260503012504 | 56 | 289 | 0.0 | 1.0 | 0.00 | 0.00 | 0.00 | 73 | 1018.5 |
| 20260503012404 | 56 | 289 | 0.0 | 1.0 | 0.00 | 0.00 | 0.00 | 73 | 1018.5 |
| 20260503012305 | 56 | 290 | 0.0 | 1.0 | 0.00 | 0.00 | 0.00 | 72 | 1018.5 |
| 20260503012203 | 56 | 294 | 0.0 | 1.0 | 0.00 | 0.00 | 0.00 | 72 | 1018.5 |
| 20260503012103 | 56 | 297 | 0.0 | 1.0 | 0.00 | 0.00 | 0.00 | 72 | 1018.5 |
| 20260503012003 | 56 | 302 | 0.0 | 2.0 | 0.00 | 0.00 | 0.00 | 72 | 1018.4 |
| 20260503012001 | 57 | 309 | 0.0 | 2.0 | 0.00 | 0.00 | 0.00 | 72 | 1018.5 |
| 20260503011903 | 57 | 309 | 0.0 | 2.0 | 0.00 | 0.00 | 0.00 | 72 | 1018.5 |
| 20260503011804 | 56 | 320 | 0.0 | 3.0 | 0.00 | 0.00 | 0.00 | 72 | 1018.4 |
| 20260503011702 | 57 | 321 | 1.0 | 3.0 | 0.00 | 0.00 | 0.00 | 71 | 1018.5 |
| 20260503011604 | 57 | 321 | 1.0 | 3.0 | 0.00 | 0.00 | 0.00 | 71 | 1018.5 |
| 20260503011504 | 57 | 321 | 1.0 | 3.0 | 0.00 | 0.00 | 0.00 | 71 | 1018.5 |
| 20260503011404 | 57 | 322 | 0.0 | 3.0 | 0.00 | 0.00 | 0.00 | 71 | 1018.5 |
| 20260503011401 | 57 | 323 | 0.0 | 3.0 | 0.00 | 0.00 | 0.00 | 71 | 1018.4 |
| 20260503011303 | 57 | 323 | 0.0 | 3.0 | 0.00 | 0.00 | 0.00 | 71 | 1018.4 |
| 20260503011205 | 57 | 318 | 0.0 | 3.0 | 0.00 | 0.00 | 0.00 | 71 | 1018.5 |
| 20260503011101 | 57 | 303 | 1.0 | 3.0 | 0.00 | 0.00 | 0.00 | 71 | 1018.4 |
| 20260503011004 | 57 | 292 | 1.0 | 3.0 | 0.00 | 0.00 | 0.00 | 71 | 1018.5 |
| 20260503010903 | 57 | 279 | 1.0 | 3.0 | 0.00 | 0.00 | 0.00 | 71 | 1018.5 |
| 20260503010803 | 57 | 259 | 0.0 | 2.0 | 0.00 | 0.00 | 0.00 | 72 | 1018.5 |
| 20260503010801 | 57 | 252 | 0.0 | 2.0 | 0.00 | 0.00 | 0.00 | 72 | 1018.5 |
| 20260503010704 | 57 | 242 | 0.0 | 2.0 | 0.00 | 0.00 | 0.00 | 72 | 1018.5 |
| 20260503010604 | 57 | 242 | 0.0 | 2.0 | 0.00 | 0.00 | 0.00 | 72 | 1018.5 |
| 20260503010502 | 57 | 242 | 0.0 | 2.0 | 0.00 | 0.00 | 0.00 | 72 | 1018.5 |
| 20260503010404 | 56 | 243 | 1.0 | 2.0 | 0.00 | 0.00 | 0.00 | 72 | 1018.5 |
| 20260503010304 | 56 | 246 | 1.0 | 2.0 | 0.00 | 0.00 | 0.00 | 72 | 1018.6 |
| 20260503010202 | 56 | 247 | 1.0 | 3.0 | 0.00 | 0.00 | 0.00 | 72 | 1018.5 |
| 20260503010104 | 56 | 250 | 1.0 | 3.0 | 0.00 | 0.00 | 0.00 | 72 | 1018.6 |
| 20260503010004 | 56 | 254 | 1.0 | 3.0 | 0.00 | 0.00 | 0.00 | 72 | 1018.6 |
| 20260503005904 | 56 | 258 | 1.0 | 3.0 | 0.00 | 0.00 | 0.00 | 72 | 1018.7 |
| 20260503005901 | 56 | 260 | 1.0 | 3.0 | 0.00 | 0.00 | 0.00 | 72 | 1018.6 |
| 20260503005803 | 56 | 260 | 1.0 | 3.0 | 0.00 | 0.00 | 0.00 | 72 | 1018.6 |
| 20260503005703 | 56 | 260 | 1.0 | 3.0 | 0.00 | 0.00 | 0.00 | 72 | 1018.5 |
| 20260503005603 | 56 | 260 | 1.0 | 3.0 | 0.00 | 0.00 | 0.00 | 72 | 1018.5 |
| 20260503005505 | 56 | 259 | 1.0 | 3.0 | 0.00 | 0.00 | 0.00 | 72 | 1018.6 |
| 20260503005405 | 56 | 258 | 1.0 | 3.0 | 0.00 | 0.00 | 0.00 | 72 | 1018.7 |
| 20260503005304 | 57 | 258 | 1.0 | 3.0 | 0.00 | 0.00 | 0.00 | 72 | 1018.6 |
| 20260503005204 | 57 | 258 | 1.0 | 2.0 | 0.00 | 0.00 | 0.00 | 72 | 1018.5 |
| 20260503005103 | 57 | 256 | 1.0 | 2.0 | 0.00 | 0.00 | 0.00 | 72 | 1018.6 |
| 20260503005003 | 57 | 250 | 1.0 | 2.0 | 0.00 | 0.00 | 0.00 | 72 | 1018.7 |
| 20260503005001 | 57 | 246 | 1.0 | 2.0 | 0.00 | 0.00 | 0.00 | 72 | 1018.7 |
| 20260503004903 | 57 | 246 | 1.0 | 2.0 | 0.00 | 0.00 | 0.00 | 72 | 1018.7 |
| 20260503004805 | 57 | 241 | 0.0 | 2.0 | 0.00 | 0.00 | 0.00 | 71 | 1018.6 |
| 20260503004702 | 57 | 227 | 0.0 | 2.0 | 0.00 | 0.00 | 0.00 | 71 | 1018.8 |
| 20260503004604 | 57 | 227 | 0.0 | 2.0 | 0.00 | 0.00 | 0.00 | 71 | 1018.8 |
| 20260503004504 | 57 | 225 | 0.0 | 1.0 | 0.00 | 0.00 | 0.00 | 71 | 1018.8 |
| 20260503004404 | 57 | 225 | 0.0 | 1.0 | 0.00 | 0.00 | 0.00 | 71 | 1018.7 |
| 20260503004401 | 57 | 224 | 0.0 | 2.0 | 0.00 | 0.00 | 0.00 | 71 | 1018.6 |
| 20260503004303 | 57 | 224 | 0.0 | 2.0 | 0.00 | 0.00 | 0.00 | 71 | 1018.6 |
| 20260503004205 | 57 | 223 | 1.0 | 3.0 | 0.00 | 0.00 | 0.00 | 71 | 1018.8 |
| 20260503004101 | 57 | 223 | 1.0 | 3.0 | 0.00 | 0.00 | 0.00 | 71 | 1018.8 |
| 20260503004003 | 57 | 222 | 1.0 | 3.0 | 0.00 | 0.00 | 0.00 | 72 | 1018.8 |
| 20260503003903 | 57 | 222 | 1.0 | 3.0 | 0.00 | 0.00 | 0.00 | 72 | 1018.7 |
| 20260503003802 | 57 | 221 | 1.0 | 3.0 | 0.00 | 0.00 | 0.00 | 72 | 1018.8 |
| 20260503003704 | 56 | 221 | 2.0 | 3.0 | 0.00 | 0.00 | 0.00 | 72 | 1018.8 |
| 20260503003604 | 56 | 221 | 2.0 | 3.0 | 0.00 | 0.00 | 0.00 | 72 | 1018.8 |
| 20260503003501 | 56 | 221 | 2.0 | 3.0 | 0.00 | 0.00 | 0.00 | 72 | 1018.8 |
| 20260503003403 | 56 | 221 | 2.0 | 3.0 | 0.00 | 0.00 | 0.00 | 72 | 1018.8 |
| 20260503003303 | 56 | 221 | 2.0 | 3.0 | 0.00 | 0.00 | 0.00 | 72 | 1018.9 |
| 20260503003202 | 56 | 221 | 2.0 | 3.0 | 0.00 | 0.00 | 0.00 | 72 | 1018.9 |
| 20260503003104 | 56 | 221 | 2.0 | 3.0 | 0.00 | 0.00 | 0.00 | 72 | 1019.0 |
| 20260503003004 | 56 | 221 | 1.0 | 3.0 | 0.00 | 0.00 | 0.00 | 72 | 1018.9 |
| 20260503002901 | 56 | 221 | 1.0 | 2.0 | 0.00 | 0.00 | 0.00 | 72 | 1018.9 |
| 20260503002804 | 56 | 221 | 1.0 | 2.0 | 0.00 | 0.00 | 0.00 | 72 | 1018.9 |
| 20260503002703 | 57 | 221 | 1.0 | 2.0 | 0.00 | 0.00 | 0.00 | 72 | 1018.9 |
| 20260503002603 | 57 | 221 | 1.0 | 2.0 | 0.00 | 0.00 | 0.00 | 72 | 1018.9 |
| 20260503002505 | 57 | 220 | 1.0 | 2.0 | 0.00 | 0.00 | 0.00 | 71 | 1019.0 |
| 20260503002405 | 57 | 220 | 0.0 | 2.0 | 0.00 | 0.00 | 0.00 | 71 | 1019.0 |
| 20260503002305 | 57 | 220 | 0.0 | 1.0 | 0.00 | 0.00 | 0.00 | 71 | 1019.1 |
| 20260503002301 | 57 | 220 | 0.0 | 2.0 | 0.00 | 0.00 | 0.00 | 71 | 1019.0 |
| 20260503002205 | 57 | 220 | 0.0 | 2.0 | 0.00 | 0.00 | 0.00 | 71 | 1019.0 |
| 20260503002105 | 57 | 218 | 1.0 | 2.0 | 0.00 | 0.00 | 0.00 | 71 | 1019.0 |
| 20260503002001 | 57 | 218 | 1.0 | 2.0 | 0.00 | 0.00 | 0.00 | 71 | 1019.0 |
| 20260503001903 | 57 | 216 | 1.0 | 2.0 | 0.00 | 0.00 | 0.00 | 71 | 1019.1 |
| 20260503001803 | 57 | 213 | 1.0 | 2.0 | 0.00 | 0.00 | 0.00 | 71 | 1019.0 |
| 20260503001702 | 57 | 219 | 1.0 | 3.0 | 0.00 | 0.00 | 0.00 | 71 | 1019.0 |
| 20260503001604 | 57 | 219 | 1.0 | 3.0 | 0.00 | 0.00 | 0.00 | 71 | 1019.0 |
| 20260503001504 | 57 | 220 | 1.0 | 3.0 | 0.00 | 0.00 | 0.00 | 71 | 1019.1 |
| 20260503001402 | 57 | 221 | 1.0 | 3.0 | 0.00 | 0.00 | 0.00 | 70 | 1019.0 |
| 20260503001303 | 57 | 225 | 1.0 | 3.0 | 0.00 | 0.00 | 0.00 | 70 | 1019.0 |
| 20260503001205 | 57 | 232 | 1.0 | 3.0 | 0.00 | 0.00 | 0.00 | 70 | 1019.1 |
| 20260503001101 | 57 | 240 | 1.0 | 3.0 | 0.00 | 0.00 | 0.00 | 70 | 1019.1 |
| 20260503001003 | 57 | 241 | 1.0 | 3.0 | 0.00 | 0.00 | 0.00 | 70 | 1019.1 |
| 20260503000903 | 57 | 244 | 1.0 | 3.0 | 0.00 | 0.00 | 0.00 | 70 | 1019.0 |
| 20260503000803 | 57 | 248 | 1.0 | 3.0 | 0.00 | 0.00 | 0.00 | 69 | 1019.1 |
| 20260503000704 | 58 | 253 | 1.0 | 2.0 | 0.00 | 0.00 | 0.00 | 69 | 1019.1 |
| 20260503000604 | 58 | 253 | 1.0 | 2.0 | 0.00 | 0.00 | 0.00 | 69 | 1019.1 |
| 20260503000501 | 58 | 255 | 1.0 | 2.0 | 0.00 | 0.00 | 0.00 | 69 | 1019.0 |
| 20260503000403 | 58 | 261 | 1.0 | 2.0 | 0.00 | 0.00 | 0.00 | 69 | 1019.1 |
| 20260503000304 | 58 | 261 | 1.0 | 2.0 | 0.00 | 0.00 | 0.00 | 69 | 1019.1 |
| 20260503000204 | 58 | 255 | 1.0 | 2.0 | 0.00 | 0.00 | 0.00 | 69 | 1019.0 |
| 20260503000105 | 58 | 253 | 1.0 | 2.0 | 0.00 | 0.00 | 0.00 | 69 | 1019.2 |
| 20260503000005 | 58 | 255 | 1.0 | 2.0 | 0.00 | 0.00 | 0.00 | 69 | 1019.1 |
| 20260502235902 | 58 | 258 | 1.0 | 2.0 | 0.00 | 0.00 | 0.00 | 69 | 1019.1 |
| 20260502235803 | 58 | 258 | 1.0 | 2.0 | 0.00 | 0.00 | 0.00 | 69 | 1019.2 |
| 20260502235703 | 58 | 263 | 1.0 | 2.0 | 0.00 | 0.00 | 0.00 | 69 | 1019.1 |
| 20260502235603 | 58 | 263 | 1.0 | 2.0 | 0.00 | 0.00 | 0.00 | 69 | 1019.1 |
| 20260502235601 | 58 | 263 | 1.0 | 3.0 | 0.00 | 0.00 | 0.00 | 69 | 1019.0 |
| 20260502235503 | 58 | 263 | 1.0 | 3.0 | 0.00 | 0.00 | 0.00 | 69 | 1019.0 |
| 20260502235405 | 58 | 267 | 1.0 | 3.0 | 0.00 | 0.00 | 0.00 | 69 | 1019.1 |
| 20260502235305 | 58 | 270 | 1.0 | 3.0 | 0.00 | 0.00 | 0.00 | 69 | 1019.1 |
| 20260502235301 | 58 | 268 | 1.0 | 3.0 | 0.00 | 0.00 | 0.00 | 69 | 1019.1 |
| 20260502235205 | 58 | 268 | 1.0 | 3.0 | 0.00 | 0.00 | 0.00 | 69 | 1019.1 |
| 20260502235105 | 58 | 261 | 1.0 | 3.0 | 0.00 | 0.00 | 0.00 | 69 | 1019.1 |
| 20260502235002 | 58 | 254 | 1.0 | 4.0 | 0.00 | 0.00 | 0.00 | 69 | 1019.2 |
| 20260502234904 | 58 | 247 | 2.0 | 4.0 | 0.00 | 0.00 | 0.00 | 69 | 1019.1 |
| 20260502234804 | 58 | 244 | 2.0 | 4.0 | 0.00 | 0.00 | 0.00 | 69 | 1019.1 |
| 20260502234702 | 58 | 238 | 2.0 | 4.0 | 0.00 | 0.00 | 0.00 | 69 | 1019.2 |
| 20260502234604 | 58 | 238 | 2.0 | 4.0 | 0.00 | 0.00 | 0.00 | 69 | 1019.2 |
| 20260502234504 | 58 | 237 | 3.0 | 4.0 | 0.00 | 0.00 | 0.00 | 69 | 1019.0 |
| 20260502234401 | 58 | 234 | 2.0 | 4.0 | 0.00 | 0.00 | 0.00 | 69 | 1019.1 |
| 20260502234303 | 58 | 232 | 3.0 | 4.0 | 0.00 | 0.00 | 0.00 | 69 | 1019.1 |
| 20260502234205 | 58 | 231 | 3.0 | 4.0 | 0.00 | 0.00 | 0.00 | 69 | 1019.2 |
| 20260502234102 | 58 | 232 | 3.0 | 4.0 | 0.00 | 0.00 | 0.00 | 69 | 1019.1 |
| 20260502234004 | 58 | 233 | 3.0 | 4.0 | 0.00 | 0.00 | 0.00 | 69 | 1019.2 |
| 20260502233904 | 58 | 234 | 2.0 | 4.0 | 0.00 | 0.00 | 0.00 | 69 | 1019.1 |
| 20260502233802 | 58 | 234 | 2.0 | 3.0 | 0.00 | 0.00 | 0.00 | 68 | 1019.2 |
| 20260502233703 | 58 | 232 | 2.0 | 4.0 | 0.00 | 0.00 | 0.00 | 69 | 1019.2 |
| 20260502233603 | 58 | 232 | 2.0 | 4.0 | 0.00 | 0.00 | 0.00 | 69 | 1019.2 |
| 20260502233503 | 58 | 230 | 2.0 | 4.0 | 0.00 | 0.00 | 0.00 | 69 | 1019.2 |
| 20260502233405 | 58 | 228 | 2.0 | 4.0 | 0.00 | 0.00 | 0.00 | 68 | 1019.2 |
| 20260502233304 | 58 | 228 | 3.0 | 4.0 | 0.00 | 0.00 | 0.00 | 68 | 1019.2 |
| 20260502233201 | 58 | 227 | 3.0 | 4.0 | 0.00 | 0.00 | 0.00 | 68 | 1019.2 |
| 20260502233103 | 58 | 225 | 3.0 | 4.0 | 0.00 | 0.00 | 0.00 | 68 | 1019.2 |
| 20260502233003 | 58 | 223 | 3.0 | 4.0 | 0.00 | 0.00 | 0.00 | 68 | 1019.2 |
| 20260502232903 | 58 | 221 | 3.0 | 4.0 | 0.00 | 0.00 | 0.00 | 68 | 1019.2 |
| 20260502232804 | 58 | 220 | 3.0 | 4.0 | 0.00 | 0.00 | 0.00 | 68 | 1019.2 |
| 20260502232703 | 58 | 221 | 3.0 | 4.0 | 0.00 | 0.00 | 0.00 | 68 | 1019.2 |
| 20260502232603 | 58 | 221 | 3.0 | 4.0 | 0.00 | 0.00 | 0.00 | 68 | 1019.2 |
| 20260502232505 | 58 | 221 | 3.0 | 4.0 | 0.00 | 0.00 | 0.00 | 68 | 1019.3 |
| 20260502232405 | 58 | 222 | 3.0 | 4.0 | 0.00 | 0.00 | 0.00 | 68 | 1019.2 |
| 20260502232304 | 58 | 222 | 3.0 | 4.0 | 0.00 | 0.00 | 0.00 | 68 | 1019.2 |
| 20260502232204 | 58 | 222 | 3.0 | 4.0 | 0.00 | 0.00 | 0.00 | 68 | 1019.2 |
| 20260502232104 | 58 | 223 | 4.0 | 4.0 | 0.00 | 0.00 | 0.00 | 68 | 1019.3 |
| 20260502232001 | 58 | 224 | 4.0 | 4.0 | 0.00 | 0.00 | 0.00 | 68 | 1019.2 |
| 20260502231904 | 58 | 224 | 4.0 | 4.0 | 0.00 | 0.00 | 0.00 | 68 | 1019.3 |
| 20260502231803 | 58 | 225 | 4.0 | 4.0 | 0.00 | 0.00 | 0.00 | 68 | 1019.3 |
| 20260502231702 | 58 | 228 | 3.0 | 4.0 | 0.00 | 0.00 | 0.00 | 68 | 1019.2 |
| 20260502231604 | 58 | 228 | 3.0 | 4.0 | 0.00 | 0.00 | 0.00 | 68 | 1019.2 |
| 20260502231504 | 58 | 228 | 3.0 | 4.0 | 0.00 | 0.00 | 0.00 | 68 | 1019.1 |
| 20260502231401 | 58 | 228 | 3.0 | 4.0 | 0.00 | 0.00 | 0.00 | 69 | 1019.2 |
| 20260502231303 | 58 | 228 | 3.0 | 4.0 | 0.00 | 0.00 | 0.00 | 69 | 1019.2 |
| 20260502231204 | 58 | 229 | 3.0 | 4.0 | 0.00 | 0.00 | 0.00 | 69 | 1019.1 |
| 20260502231102 | 58 | 228 | 3.0 | 4.0 | 0.00 | 0.00 | 0.00 | 69 | 1019.2 |
| 20260502231004 | 58 | 228 | 3.0 | 4.0 | 0.00 | 0.00 | 0.00 | 69 | 1019.2 |
| 20260502230904 | 58 | 228 | 3.0 | 4.0 | 0.00 | 0.00 | 0.00 | 69 | 1019.2 |
| 20260502230803 | 58 | 229 | 3.0 | 4.0 | 0.00 | 0.00 | 0.00 | 69 | 1019.2 |
| 20260502230704 | 58 | 230 | 3.0 | 4.0 | 0.00 | 0.00 | 0.00 | 69 | 1019.2 |
| 20260502230604 | 58 | 230 | 3.0 | 4.0 | 0.00 | 0.00 | 0.00 | 69 | 1019.2 |
| 20260502230502 | 58 | 231 | 3.0 | 4.0 | 0.00 | 0.00 | 0.00 | 69 | 1019.2 |
| 20260502230404 | 58 | 233 | 3.0 | 4.0 | 0.00 | 0.00 | 0.00 | 69 | 1019.1 |
| 20260502230304 | 58 | 235 | 2.0 | 4.0 | 0.00 | 0.00 | 0.00 | 69 | 1019.2 |
| 20260502230202 | 58 | 239 | 2.0 | 4.0 | 0.00 | 0.00 | 0.00 | 69 | 1019.2 |
| 20260502230104 | 58 | 241 | 2.0 | 6.0 | 0.00 | 0.00 | 0.00 | 69 | 1019.2 |
| 20260502230004 | 58 | 243 | 2.0 | 6.0 | 0.00 | 0.00 | 0.00 | 69 | 1019.2 |
| 20260502225902 | 58 | 246 | 2.0 | 6.0 | 0.00 | 0.00 | 0.00 | 69 | 1019.2 |
| 20260502225804 | 58 | 244 | 2.0 | 6.0 | 0.00 | 0.00 | 0.00 | 69 | 1019.2 |
| 20260502225703 | 58 | 240 | 3.0 | 6.0 | 0.00 | 0.00 | 0.00 | 68 | 1019.2 |
| 20260502225603 | 58 | 240 | 3.0 | 6.0 | 0.00 | 0.00 | 0.00 | 68 | 1019.2 |
| 20260502225601 | 58 | 237 | 3.0 | 7.0 | 0.00 | 0.00 | 0.00 | 68 | 1019.2 |
| 20260502225503 | 58 | 237 | 3.0 | 7.0 | 0.00 | 0.00 | 0.00 | 68 | 1019.2 |
| 20260502225405 | 58 | 235 | 3.0 | 7.0 | 0.00 | 0.00 | 0.00 | 68 | 1019.2 |
| 20260502225304 | 58 | 233 | 3.0 | 7.0 | 0.00 | 0.00 | 0.00 | 68 | 1019.2 |
| 20260502225204 | 58 | 232 | 4.0 | 7.0 | 0.00 | 0.00 | 0.00 | 68 | 1019.1 |
| 20260502225104 | 58 | 231 | 3.0 | 7.0 | 0.00 | 0.00 | 0.00 | 68 | 1019.2 |
| 20260502225004 | 58 | 232 | 3.0 | 7.0 | 0.00 | 0.00 | 0.00 | 68 | 1019.1 |
| 20260502225001 | 58 | 232 | 3.0 | 7.0 | 0.00 | 0.00 | 0.00 | 68 | 1019.2 |
| 20260502224903 | 58 | 232 | 3.0 | 7.0 | 0.00 | 0.00 | 0.00 | 68 | 1019.2 |
| 20260502224803 | 58 | 233 | 3.0 | 7.0 | 0.00 | 0.00 | 0.00 | 68 | 1019.1 |
| 20260502224702 | 58 | 229 | 3.0 | 7.0 | 0.00 | 0.00 | 0.00 | 68 | 1019.2 |
| 20260502224604 | 58 | 229 | 3.0 | 7.0 | 0.00 | 0.00 | 0.00 | 68 | 1019.2 |
| 20260502224504 | 58 | 228 | 3.0 | 7.0 | 0.00 | 0.00 | 0.00 | 68 | 1019.1 |
| 20260502224402 | 58 | 228 | 3.0 | 7.0 | 0.00 | 0.00 | 0.00 | 68 | 1019.1 |
| 20260502224303 | 58 | 227 | 3.0 | 7.0 | 0.00 | 0.00 | 0.00 | 68 | 1019.1 |
| 20260502224203 | 58 | 226 | 3.0 | 7.0 | 0.00 | 0.00 | 0.00 | 68 | 1019.2 |
| 20260502224101 | 58 | 227 | 4.0 | 8.0 | 0.00 | 0.00 | 0.00 | 68 | 1019.1 |
| 20260502224003 | 58 | 226 | 4.0 | 8.0 | 0.00 | 0.00 | 0.00 | 68 | 1019.2 |
| 20260502223903 | 58 | 225 | 4.0 | 8.0 | 0.00 | 0.00 | 0.00 | 68 | 1019.1 |
| 20260502223803 | 58 | 224 | 4.0 | 8.0 | 0.00 | 0.00 | 0.00 | 68 | 1019.2 |
| 20260502223801 | 58 | 226 | 4.0 | 8.0 | 0.00 | 0.00 | 0.00 | 68 | 1019.2 |
| 20260502223705 | 58 | 229 | 4.0 | 8.0 | 0.00 | 0.00 | 0.00 | 68 | 1019.2 |
| 20260502223604 | 58 | 229 | 4.0 | 8.0 | 0.00 | 0.00 | 0.00 | 68 | 1019.2 |
| 20260502223502 | 58 | 232 | 4.0 | 10.0 | 0.00 | 0.00 | 0.00 | 68 | 1019.2 |
| 20260502223404 | 58 | 231 | 4.0 | 10.0 | 0.00 | 0.00 | 0.00 | 68 | 1019.2 |
| 20260502223305 | 58 | 231 | 5.0 | 10.0 | 0.00 | 0.00 | 0.00 | 68 | 1019.1 |
| 20260502223202 | 58 | 232 | 5.0 | 10.0 | 0.00 | 0.00 | 0.00 | 68 | 1019.2 |
| 20260502223103 | 58 | 231 | 5.0 | 10.0 | 0.00 | 0.00 | 0.00 | 68 | 1019.2 |
| 20260502223003 | 58 | 231 | 5.0 | 10.0 | 0.00 | 0.00 | 0.00 | 67 | 1019.1 |
| 20260502222902 | 58 | 232 | 4.0 | 10.0 | 0.00 | 0.00 | 0.00 | 67 | 1019.1 |
| 20260502222804 | 58 | 233 | 4.0 | 10.0 | 0.00 | 0.00 | 0.00 | 67 | 1019.1 |
| 20260502222704 | 59 | 233 | 4.0 | 10.0 | 0.00 | 0.00 | 0.00 | 67 | 1019.1 |
| 20260502222602 | 59 | 233 | 4.0 | 10.0 | 0.00 | 0.00 | 0.00 | 67 | 1019.2 |
| 20260502222504 | 59 | 232 | 4.0 | 10.0 | 0.00 | 0.00 | 0.00 | 67 | 1019.2 |
| 20260502222404 | 59 | 238 | 3.0 | 8.0 | 0.00 | 0.00 | 0.00 | 67 | 1019.1 |
| 20260502222305 | 59 | 238 | 3.0 | 8.0 | 0.00 | 0.00 | 0.00 | 67 | 1019.1 |
| 20260502222204 | 59 | 239 | 3.0 | 7.0 | 0.00 | 0.00 | 0.00 | 67 | 1019.1 |
| 20260502222104 | 59 | 240 | 3.0 | 7.0 | 0.00 | 0.00 | 0.00 | 67 | 1019.1 |
| 20260502222001 | 59 | 241 | 3.0 | 7.0 | 0.00 | 0.00 | 0.00 | 67 | 1019.1 |
| 20260502221903 | 59 | 243 | 3.0 | 7.0 | 0.00 | 0.00 | 0.00 | 67 | 1019.1 |
| 20260502221803 | 59 | 244 | 3.0 | 7.0 | 0.00 | 0.00 | 0.00 | 67 | 1019.1 |
| 20260502221702 | 59 | 246 | 3.0 | 7.0 | 0.00 | 0.00 | 0.00 | 67 | 1019.2 |
| 20260502221604 | 59 | 247 | 3.0 | 7.0 | 0.00 | 0.00 | 0.00 | 67 | 1019.1 |
| 20260502221515 | 60 | 270 | 1.0 | 4.0 | 0.00 | 0.00 | 0.00 | 66 | 1019.1 |
| 20260502221504 | 59 | 248 | 3.0 | 7.0 | 0.00 | 0.00 | 0.00 | 67 | 1019.1 |
| 20260502221415 | 60 | 276 | 1.0 | 3.0 | 0.00 | 0.00 | 0.00 | 65 | 1019.1 |
| 20260502221402 | 59 | 259 | 2.0 | 7.0 | 0.00 | 0.00 | 0.00 | 66 | 1019.1 |
| 20260502221303 | 59 | 259 | 2.0 | 7.0 | 0.00 | 0.00 | 0.00 | 66 | 1019.1 |
| 20260502221203 | 59 | 263 | 2.0 | 7.0 | 0.00 | 0.00 | 0.00 | 66 | 1019.1 |
| 20260502221102 | 60 | 270 | 1.0 | 4.0 | 0.00 | 0.00 | 0.00 | 66 | 1019.1 |
| 20260502221004 | 60 | 276 | 1.0 | 3.0 | 0.00 | 0.00 | 0.00 | 65 | 1019.1 |
| 20260502220904 | 60 | 282 | 1.0 | 3.0 | 0.00 | 0.00 | 0.00 | 65 | 1019.1 |
| 20260502220803 | 60 | 273 | 1.0 | 4.0 | 0.00 | 0.00 | 0.00 | 65 | 1019.1 |
| 20260502220801 | 60 | 258 | 1.0 | 4.0 | 0.00 | 0.00 | 0.00 | 65 | 1019.1 |
| 20260502220704 | 60 | 258 | 1.0 | 4.0 | 0.00 | 0.00 | 0.00 | 65 | 1019.1 |
| 20260502220604 | 60 | 243 | 2.0 | 7.0 | 0.00 | 0.00 | 0.00 | 65 | 1019.1 |
| 20260502220502 | 60 | 236 | 2.0 | 7.0 | 0.00 | 0.00 | 0.00 | 65 | 1019.2 |
| 20260502220404 | 60 | 224 | 3.0 | 7.0 | 0.00 | 0.00 | 0.00 | 64 | 1019.1 |
| 20260502220304 | 60 | 224 | 3.0 | 7.0 | 0.00 | 0.00 | 0.00 | 64 | 1019.1 |
| 20260502220201 | 60 | 222 | 3.0 | 7.0 | 0.00 | 0.00 | 0.00 | 64 | 1019.1 |
| 20260502220003 | 60 | 221 | 4.0 | 7.0 | 0.00 | 0.00 | 0.00 | 64 | 1019.0 |
| 20260502215902 | 60 | 219 | 5.0 | 7.0 | 0.00 | 0.00 | 0.00 | 64 | 1019.1 |
| 20260502215804 | 60 | 220 | 5.0 | 7.0 | 0.00 | 0.00 | 0.00 | 64 | 1019.1 |
| 20260502215704 | 60 | 222 | 5.0 | 7.0 | 0.00 | 0.00 | 0.00 | 64 | 1019.1 |
| 20260502215602 | 60 | 224 | 5.0 | 7.0 | 0.00 | 0.00 | 0.00 | 64 | 1019.1 |
| 20260502215504 | 60 | 225 | 5.0 | 7.0 | 0.00 | 0.00 | 0.00 | 64 | 1019.1 |
| 20260502215404 | 60 | 229 | 4.0 | 7.0 | 0.00 | 0.00 | 0.00 | 64 | 1019.1 |
| 20260502215304 | 60 | 229 | 4.0 | 7.0 | 0.00 | 0.00 | 0.00 | 64 | 1019.1 |
| 20260502215204 | 60 | 233 | 4.0 | 7.0 | 0.00 | 0.00 | 0.00 | 64 | 1019.1 |
| 20260502215103 | 60 | 234 | 4.0 | 7.0 | 0.00 | 0.00 | 0.00 | 64 | 1019.2 |
| 20260502215003 | 60 | 238 | 3.0 | 7.0 | 0.00 | 0.00 | 0.00 | 64 | 1019.3 |
| 20260502214905 | 60 | 243 | 3.0 | 7.0 | 0.00 | 0.00 | 0.00 | 64 | 1019.2 |
| 20260502214805 | 60 | 246 | 3.0 | 6.0 | 0.00 | 0.00 | 0.00 | 64 | 1019.3 |
| 20260502214702 | 60 | 248 | 3.0 | 6.0 | 0.00 | 0.00 | 0.00 | 64 | 1019.1 |
| 20260502214604 | 60 | 249 | 2.0 | 4.0 | 0.00 | 0.00 | 0.00 | 64 | 1019.2 |
| 20260502214504 | 60 | 250 | 2.0 | 4.0 | 0.00 | 0.00 | 0.00 | 63 | 1019.2 |
| 20260502214401 | 60 | 253 | 2.0 | 4.0 | 0.00 | 0.00 | 0.00 | 63 | 1019.2 |
| 20260502214303 | 60 | 253 | 2.0 | 4.0 | 0.00 | 0.00 | 0.00 | 63 | 1019.2 |
| 20260502214203 | 61 | 254 | 2.0 | 4.0 | 0.00 | 0.00 | 0.00 | 63 | 1019.1 |
| 20260502214102 | 61 | 255 | 2.0 | 4.0 | 0.00 | 0.00 | 0.00 | 63 | 1019.1 |
| 20260502214016 | 60 | 259 | 1.0 | 3.0 | 0.00 | 0.00 | 0.00 | 63 | 1019.2 |
| 20260502214004 | 61 | 256 | 2.0 | 4.0 | 0.00 | 0.00 | 0.00 | 63 | 1019.1 |
| 20260502213904 | 61 | 256 | 2.0 | 4.0 | 0.00 | 0.00 | 0.00 | 63 | 1019.2 |
| 20260502213816 | 61 | 269 | 1.0 | 2.0 | 0.00 | 0.00 | 0.00 | 64 | 1019.1 |
| 20260502213803 | 61 | 256 | 2.0 | 4.0 | 0.00 | 0.00 | 0.00 | 63 | 1019.2 |
| 20260502213801 | 61 | 258 | 1.0 | 3.0 | 0.00 | 0.00 | 0.00 | 63 | 1019.2 |
| 20260502213705 | 61 | 258 | 1.0 | 3.0 | 0.00 | 0.00 | 0.00 | 63 | 1019.2 |
| 20260502213616 | 61 | 270 | 0.0 | 2.0 | 0.00 | 0.00 | 0.00 | 64 | 1019.1 |
| 20260502213605 | 60 | 259 | 1.0 | 3.0 | 0.00 | 0.00 | 0.00 | 63 | 1019.2 |
| 20260502213516 | 61 | 273 | 0.0 | 2.0 | 0.00 | 0.00 | 0.00 | 64 | 1019.2 |
| 20260502213502 | 61 | 262 | 1.0 | 3.0 | 0.00 | 0.00 | 0.00 | 63 | 1019.1 |
| 20260502213416 | 61 | 275 | 0.0 | 2.0 | 0.00 | 0.00 | 0.00 | 64 | 1019.2 |
| 20260502213404 | 61 | 269 | 1.0 | 2.0 | 0.00 | 0.00 | 0.00 | 64 | 1019.1 |
| 20260502213303 | 61 | 269 | 1.0 | 2.0 | 0.00 | 0.00 | 0.00 | 64 | 1019.1 |
| 20260502213215 | 61 | 288 | 0.0 | 2.0 | 0.00 | 0.00 | 0.00 | 64 | 1019.1 |
| 20260502213202 | 61 | 270 | 0.0 | 2.0 | 0.00 | 0.00 | 0.00 | 64 | 1019.1 |
| 20260502213104 | 61 | 273 | 0.0 | 2.0 | 0.00 | 0.00 | 0.00 | 64 | 1019.2 |
| 20260502213004 | 61 | 275 | 0.0 | 2.0 | 0.00 | 0.00 | 0.00 | 64 | 1019.2 |
| 20260502212902 | 61 | 282 | 0.0 | 2.0 | 0.00 | 0.00 | 0.00 | 64 | 1019.2 |
| 20260502212804 | 61 | 288 | 0.0 | 2.0 | 0.00 | 0.00 | 0.00 | 64 | 1019.1 |
| 20260502212703 | 61 | 293 | 0.0 | 2.0 | 0.00 | 0.00 | 0.00 | 64 | 1019.1 |
| 20260502212601 | 61 | 294 | 0.0 | 2.0 | 0.00 | 0.00 | 0.00 | 64 | 1019.0 |
| 20260502212503 | 61 | 295 | 0.0 | 2.0 | 0.00 | 0.00 | 0.00 | 64 | 1019.1 |
| 20260502212403 | 61 | 294 | 1.0 | 2.0 | 0.00 | 0.00 | 0.00 | 63 | 1019.1 |
| 20260502212304 | 61 | 294 | 1.0 | 2.0 | 0.00 | 0.00 | 0.00 | 63 | 1019.1 |
| 20260502212204 | 61 | 293 | 1.0 | 2.0 | 0.00 | 0.00 | 0.00 | 63 | 1019.1 |
| 20260502212104 | 61 | 292 | 1.0 | 2.0 | 0.00 | 0.00 | 0.00 | 63 | 1019.1 |
| 20260502212002 | 61 | 292 | 1.0 | 2.0 | 0.00 | 0.00 | 0.00 | 63 | 1019.1 |
| 20260502211904 | 61 | 292 | 1.0 | 2.0 | 0.00 | 0.00 | 0.00 | 63 | 1019.2 |
| 20260502211803 | 61 | 293 | 1.0 | 2.0 | 0.00 | 0.00 | 0.00 | 63 | 1019.1 |
| 20260502211704 | 61 | 296 | 1.0 | 3.0 | 0.00 | 0.00 | 0.00 | 63 | 1019.1 |
| 20260502211701 | 61 | 299 | 1.0 | 3.0 | 0.00 | 0.00 | 0.00 | 63 | 1019.1 |
| 20260502211603 | 61 | 299 | 1.0 | 3.0 | 0.00 | 0.00 | 0.00 | 63 | 1019.1 |
| 20260502211513 | 61 | 312 | 2.0 | 3.0 | 0.00 | 0.00 | 0.00 | 63 | 1019.1 |
| 20260502211503 | 61 | 304 | 1.0 | 3.0 | 0.00 | 0.00 | 0.00 | 63 | 1019.1 |
| 20260502211401 | 61 | 306 | 2.0 | 3.0 | 0.00 | 0.00 | 0.00 | 63 | 1019.1 |
| 20260502211303 | 61 | 306 | 2.0 | 3.0 | 0.00 | 0.00 | 0.00 | 63 | 1019.1 |
| 20260502211204 | 61 | 310 | 2.0 | 3.0 | 0.00 | 0.00 | 0.00 | 63 | 1019.1 |
| 20260502211102 | 61 | 312 | 2.0 | 3.0 | 0.00 | 0.00 | 0.00 | 63 | 1019.1 |
| 20260502211004 | 61 | 310 | 2.0 | 3.0 | 0.00 | 0.00 | 0.00 | 63 | 1019.1 |
| 20260502210904 | 61 | 305 | 2.0 | 4.0 | 0.00 | 0.00 | 0.00 | 63 | 1019.1 |
| 20260502210803 | 61 | 302 | 2.0 | 4.0 | 0.00 | 0.00 | 0.00 | 63 | 1019.1 |
| 20260502210801 | 61 | 297 | 2.0 | 4.0 | 0.00 | 0.00 | 0.00 | 63 | 1019.2 |
| 20260502210703 | 61 | 297 | 2.0 | 4.0 | 0.00 | 0.00 | 0.00 | 63 | 1019.2 |
| 20260502210603 | 61 | 292 | 2.0 | 4.0 | 0.00 | 0.00 | 0.00 | 63 | 1019.2 |
| 20260502210502 | 61 | 283 | 2.0 | 4.0 | 0.00 | 0.00 | 0.00 | 63 | 1019.1 |
| 20260502210404 | 61 | 270 | 2.0 | 4.0 | 0.00 | 0.00 | 0.00 | 63 | 1019.1 |
| 20260502210304 | 61 | 270 | 2.0 | 4.0 | 0.00 | 0.00 | 0.00 | 63 | 1019.1 |
| 20260502210201 | 61 | 261 | 2.0 | 6.0 | 0.00 | 0.00 | 0.00 | 62 | 1019.1 |
| 20260502210112 | 62 | 231 | 3.0 | 6.0 | 0.00 | 0.00 | 0.00 | 62 | 1019.1 |
| 20260502210103 | 61 | 252 | 2.0 | 6.0 | 0.00 | 0.00 | 0.00 | 62 | 1019.2 |
| 20260502210004 | 61 | 246 | 3.0 | 6.0 | 0.00 | 0.00 | 0.00 | 62 | 1019.0 |
| 20260502205901 | 61 | 242 | 2.0 | 6.0 | 0.00 | 0.00 | 0.00 | 62 | 1019.1 |
| 20260502205803 | 61 | 237 | 3.0 | 6.0 | 0.00 | 0.00 | 0.00 | 62 | 1019.2 |
| 20260502205703 | 62 | 231 | 3.0 | 6.0 | 0.00 | 0.00 | 0.00 | 62 | 1019.1 |
| 20260502205611 | 62 | 216 | 3.0 | 6.0 | 0.00 | 0.00 | 0.00 | 61 | 1019.1 |
| 20260502205602 | 62 | 227 | 3.0 | 6.0 | 0.00 | 0.00 | 0.00 | 61 | 1019.2 |
| 20260502205504 | 62 | 224 | 3.0 | 6.0 | 0.00 | 0.00 | 0.00 | 61 | 1019.1 |
| 20260502205411 | 62 | 208 | 3.0 | 8.0 | 0.00 | 0.00 | 0.00 | 60 | 1019.2 |
| 20260502205404 | 62 | 218 | 3.0 | 6.0 | 0.00 | 0.00 | 0.00 | 61 | 1019.1 |
| 20260502205316 | 62 | 204 | 4.0 | 8.0 | 0.00 | 0.00 | 0.00 | 60 | 1019.2 |
| 20260502205305 | 62 | 218 | 3.0 | 6.0 | 0.00 | 0.00 | 0.00 | 61 | 1019.1 |
| 20260502205301 | 62 | 216 | 3.0 | 6.0 | 0.00 | 0.00 | 0.00 | 61 | 1019.1 |
| 20260502205203 | 62 | 216 | 3.0 | 6.0 | 0.00 | 0.00 | 0.00 | 61 | 1019.1 |
| 20260502205111 | 62 | 201 | 4.0 | 8.0 | 0.00 | 0.00 | 0.00 | 60 | 1019.2 |
| 20260502205103 | 62 | 211 | 3.0 | 6.0 | 0.00 | 0.00 | 0.00 | 60 | 1019.1 |
| 20260502205015 | 62 | 199 | 4.0 | 8.0 | 0.00 | 0.00 | 0.00 | 59 | 1019.1 |
| 20260502205002 | 62 | 208 | 3.0 | 8.0 | 0.00 | 0.00 | 0.00 | 60 | 1019.2 |
| 20260502204915 | 62 | 197 | 4.0 | 8.0 | 0.00 | 0.00 | 0.00 | 59 | 1019.1 |
| 20260502204904 | 62 | 204 | 4.0 | 8.0 | 0.00 | 0.00 | 0.00 | 60 | 1019.2 |
| 20260502204803 | 62 | 202 | 4.0 | 8.0 | 0.00 | 0.00 | 0.00 | 60 | 1019.1 |
| 20260502204702 | 62 | 201 | 4.0 | 8.0 | 0.00 | 0.00 | 0.00 | 60 | 1019.2 |
| 20260502204604 | 62 | 199 | 4.0 | 8.0 | 0.00 | 0.00 | 0.00 | 59 | 1019.1 |
| 20260502204504 | 62 | 197 | 4.0 | 8.0 | 0.00 | 0.00 | 0.00 | 59 | 1019.1 |
| 20260502204416 | 62 | 195 | 5.0 | 8.0 | 0.00 | 0.00 | 0.00 | 60 | 1019.1 |
| 20260502204402 | 62 | 195 | 5.0 | 8.0 | 0.00 | 0.00 | 0.00 | 59 | 1019.1 |
| 20260502204304 | 62 | 195 | 5.0 | 8.0 | 0.00 | 0.00 | 0.00 | 59 | 1019.1 |
| 20260502204205 | 62 | 194 | 5.0 | 8.0 | 0.00 | 0.00 | 0.00 | 59 | 1019.2 |
| 20260502204114 | 62 | 198 | 5.0 | 8.0 | 0.00 | 0.00 | 0.00 | 60 | 1019.2 |
| 20260502204102 | 62 | 194 | 5.0 | 8.0 | 0.00 | 0.00 | 0.00 | 60 | 1019.1 |
| 20260502204014 | 62 | 199 | 5.0 | 8.0 | 0.00 | 0.00 | 0.00 | 60 | 1019.1 |
| 20260502204004 | 62 | 195 | 5.0 | 8.0 | 0.00 | 0.00 | 0.00 | 60 | 1019.1 |
| 20260502203904 | 62 | 196 | 5.0 | 8.0 | 0.00 | 0.00 | 0.00 | 60 | 1019.1 |
| 20260502203803 | 62 | 197 | 5.0 | 8.0 | 0.00 | 0.00 | 0.00 | 60 | 1019.2 |
| 20260502203801 | 62 | 198 | 5.0 | 8.0 | 0.00 | 0.00 | 0.00 | 60 | 1019.2 |
| 20260502203705 | 62 | 198 | 5.0 | 8.0 | 0.00 | 0.00 | 0.00 | 60 | 1019.2 |
| 20260502203605 | 62 | 199 | 5.0 | 8.0 | 0.00 | 0.00 | 0.00 | 60 | 1019.1 |
| 20260502203502 | 62 | 200 | 5.0 | 8.0 | 0.00 | 0.00 | 0.00 | 60 | 1019.0 |
| 20260502203404 | 62 | 203 | 5.0 | 8.0 | 0.00 | 0.00 | 0.00 | 60 | 1019.2 |
| 20260502203314 | 62 | 208 | 4.0 | 8.0 | 0.00 | 0.00 | 0.00 | 61 | 1019.1 |
| 20260502203304 | 62 | 203 | 5.0 | 8.0 | 0.00 | 0.00 | 0.00 | 60 | 1019.2 |
| 20260502203201 | 62 | 204 | 5.0 | 8.0 | 0.00 | 0.00 | 0.00 | 60 | 1019.2 |
| 20260502203104 | 62 | 206 | 5.0 | 8.0 | 0.00 | 0.00 | 0.00 | 60 | 1019.2 |
| 20260502203004 | 62 | 207 | 5.0 | 8.0 | 0.00 | 0.00 | 0.00 | 61 | 1019.1 |
| 20260502202902 | 62 | 208 | 4.0 | 8.0 | 0.00 | 0.00 | 0.00 | 61 | 1019.1 |
| 20260502202804 | 62 | 209 | 4.0 | 8.0 | 0.00 | 0.00 | 0.00 | 61 | 1019.1 |
| 20260502202703 | 62 | 210 | 4.0 | 8.0 | 0.00 | 0.00 | 0.00 | 61 | 1019.1 |
| 20260502202603 | 62 | 210 | 4.0 | 8.0 | 0.00 | 0.00 | 0.00 | 61 | 1019.1 |
| 20260502202601 | 62 | 211 | 4.0 | 8.0 | 0.00 | 0.00 | 0.00 | 61 | 1019.1 |
| 20260502202503 | 62 | 211 | 4.0 | 8.0 | 0.00 | 0.00 | 0.00 | 61 | 1019.1 |
| 20260502202403 | 62 | 210 | 4.0 | 8.0 | 0.00 | 0.00 | 0.00 | 62 | 1019.1 |
| 20260502202305 | 62 | 210 | 4.0 | 8.0 | 0.00 | 0.00 | 0.00 | 62 | 1019.1 |
| 20260502202301 | 62 | 209 | 4.0 | 8.0 | 0.00 | 0.00 | 0.00 | 62 | 1019.1 |
| 20260502202207 | 62 | 203 | 4.0 | 8.0 | 0.00 | 0.00 | 0.00 | 61 | 1019.2 |
| 20260502202204 | 62 | 209 | 4.0 | 8.0 | 0.00 | 0.00 | 0.00 | 62 | 1019.1 |
| 20260502202104 | 62 | 207 | 4.0 | 8.0 | 0.00 | 0.00 | 0.00 | 61 | 1019.2 |
| 20260502202002 | 62 | 205 | 4.0 | 8.0 | 0.00 | 0.00 | 0.00 | 61 | 1019.1 |
| 20260502201904 | 62 | 204 | 4.0 | 8.0 | 0.00 | 0.00 | 0.00 | 61 | 1019.2 |
| 20260502201803 | 62 | 203 | 4.0 | 8.0 | 0.00 | 0.00 | 0.00 | 61 | 1019.2 |
| 20260502201716 | 62 | 194 | 4.0 | 8.0 | 0.00 | 0.00 | 0.00 | 60 | 1019.0 |
| 20260502201702 | 62 | 201 | 4.0 | 8.0 | 0.00 | 0.00 | 0.00 | 60 | 1019.1 |
| 20260502201604 | 62 | 199 | 4.0 | 8.0 | 0.00 | 0.00 | 0.00 | 60 | 1019.1 |
| 20260502201503 | 62 | 197 | 4.0 | 8.0 | 0.00 | 0.00 | 0.00 | 60 | 1019.1 |
| 20260502201403 | 62 | 194 | 4.0 | 8.0 | 0.00 | 0.00 | 0.00 | 60 | 1019.0 |
| 20260502201304 | 62 | 194 | 4.0 | 8.0 | 0.00 | 0.00 | 0.00 | 60 | 1019.0 |
| 20260502201301 | 62 | 194 | 4.0 | 8.0 | 0.00 | 0.00 | 0.00 | 60 | 1019.0 |
| 20260502201204 | 62 | 192 | 4.0 | 8.0 | 0.00 | 0.00 | 0.00 | 60 | 1019.0 |
| 20260502201101 | 62 | 192 | 4.0 | 8.0 | 0.00 | 0.00 | 0.00 | 60 | 1019.2 |
| 20260502201015 | 62 | 199 | 4.0 | 8.0 | 0.00 | 0.00 | 0.00 | 60 | 1018.9 |
| 20260502201003 | 62 | 192 | 4.0 | 8.0 | 0.00 | 0.00 | 0.00 | 60 | 1019.0 |
| 20260502200903 | 62 | 194 | 4.0 | 8.0 | 0.00 | 0.00 | 0.00 | 60 | 1019.0 |
| 20260502200802 | 62 | 195 | 4.0 | 8.0 | 0.00 | 0.00 | 0.00 | 60 | 1019.0 |
| 20260502200715 | 63 | 208 | 4.0 | 8.0 | 0.00 | 0.00 | 0.00 | 59 | 1018.9 |
| 20260502200704 | 62 | 196 | 4.0 | 8.0 | 0.00 | 0.00 | 0.00 | 60 | 1019.0 |
| 20260502200615 | 63 | 209 | 4.0 | 8.0 | 0.00 | 0.00 | 0.00 | 59 | 1018.9 |
| 20260502200604 | 62 | 199 | 4.0 | 8.0 | 0.00 | 0.00 | 0.00 | 60 | 1018.9 |
| 20260502200515 | 63 | 210 | 4.0 | 8.0 | 0.00 | 0.00 | 0.00 | 59 | 1018.9 |
| 20260502200503 | 62 | 203 | 4.0 | 8.0 | 0.00 | 0.00 | 0.00 | 60 | 1018.9 |
| 20260502200501 | 63 | 205 | 4.0 | 8.0 | 0.00 | 0.00 | 0.00 | 60 | 1018.9 |
| 20260502200403 | 63 | 208 | 4.0 | 8.0 | 0.00 | 0.00 | 0.00 | 59 | 1018.9 |
| 20260502200304 | 63 | 208 | 4.0 | 8.0 | 0.00 | 0.00 | 0.00 | 59 | 1018.9 |
| 20260502200215 | 63 | 210 | 4.0 | 9.0 | 0.00 | 0.00 | 0.00 | 59 | 1018.9 |
| 20260502200204 | 63 | 209 | 4.0 | 8.0 | 0.00 | 0.00 | 0.00 | 59 | 1018.9 |
| 20260502200201 | 63 | 210 | 4.0 | 8.0 | 0.00 | 0.00 | 0.00 | 59 | 1018.9 |
| 20260502200104 | 63 | 210 | 4.0 | 8.0 | 0.00 | 0.00 | 0.00 | 59 | 1018.9 |
| 20260502200004 | 63 | 211 | 4.0 | 8.0 | 0.00 | 0.00 | 0.00 | 59 | 1018.9 |
| 20260502195914 | 63 | 209 | 5.0 | 9.0 | 0.00 | 0.00 | 0.00 | 59 | 1018.8 |
| 20260502195902 | 63 | 211 | 4.0 | 8.0 | 0.00 | 0.00 | 0.00 | 59 | 1018.9 |
| 20260502195804 | 63 | 210 | 4.0 | 9.0 | 0.00 | 0.00 | 0.00 | 59 | 1018.9 |
| 20260502195714 | 63 | 207 | 5.0 | 9.0 | 0.00 | 0.00 | 0.00 | 59 | 1018.8 |
| 20260502195704 | 63 | 211 | 5.0 | 9.0 | 0.00 | 0.00 | 0.00 | 59 | 1018.9 |
| 20260502195604 | 63 | 209 | 5.0 | 9.0 | 0.00 | 0.00 | 0.00 | 59 | 1018.9 |
| 20260502195601 | 63 | 209 | 5.0 | 9.0 | 0.00 | 0.00 | 0.00 | 59 | 1018.8 |
| 20260502195503 | 63 | 209 | 5.0 | 9.0 | 0.00 | 0.00 | 0.00 | 59 | 1018.8 |
| 20260502195403 | 63 | 208 | 5.0 | 9.0 | 0.00 | 0.00 | 0.00 | 59 | 1018.9 |
| 20260502195304 | 63 | 207 | 5.0 | 9.0 | 0.00 | 0.00 | 0.00 | 59 | 1018.8 |
| 20260502195203 | 63 | 207 | 5.0 | 9.0 | 0.00 | 0.00 | 0.00 | 59 | 1018.8 |
| 20260502195114 | 63 | 208 | 5.0 | 8.0 | 0.00 | 0.00 | 0.00 | 59 | 1018.9 |
| 20260502195104 | 63 | 207 | 5.0 | 9.0 | 0.00 | 0.00 | 0.00 | 59 | 1018.8 |
| 20260502195002 | 63 | 207 | 5.0 | 9.0 | 0.00 | 0.00 | 0.00 | 59 | 1018.9 |
| 20260502194904 | 63 | 207 | 5.0 | 9.0 | 0.00 | 0.00 | 0.00 | 59 | 1018.8 |
| 20260502194803 | 63 | 207 | 5.0 | 8.0 | 0.00 | 0.00 | 0.00 | 59 | 1018.9 |
| 20260502194702 | 63 | 208 | 5.0 | 8.0 | 0.00 | 0.00 | 0.00 | 59 | 1018.9 |
| 20260502194604 | 63 | 208 | 5.0 | 8.0 | 0.00 | 0.00 | 0.00 | 59 | 1018.9 |
| 20260502194513 | 63 | 207 | 4.0 | 8.0 | 0.00 | 0.00 | 0.00 | 59 | 1018.8 |
| 20260502194504 | 63 | 208 | 4.0 | 8.0 | 0.00 | 0.00 | 0.00 | 59 | 1018.8 |
| 20260502194402 | 63 | 208 | 4.0 | 8.0 | 0.00 | 0.00 | 0.00 | 59 | 1018.8 |
| 20260502194303 | 63 | 208 | 4.0 | 8.0 | 0.00 | 0.00 | 0.00 | 59 | 1018.8 |
| 20260502194203 | 63 | 208 | 4.0 | 8.0 | 0.00 | 0.00 | 0.00 | 59 | 1018.9 |
| 20260502194102 | 63 | 207 | 4.0 | 8.0 | 0.00 | 0.00 | 0.00 | 59 | 1018.8 |
| 20260502194004 | 63 | 207 | 4.0 | 7.0 | 0.00 | 0.00 | 0.00 | 59 | 1018.8 |
| 20260502193904 | 63 | 206 | 4.0 | 7.0 | 0.00 | 0.00 | 0.00 | 59 | 1018.8 |
| 20260502193803 | 63 | 206 | 4.0 | 7.0 | 0.00 | 0.00 | 0.00 | 59 | 1018.8 |
| 20260502193801 | 63 | 205 | 4.0 | 7.0 | 0.00 | 0.00 | 0.00 | 59 | 1018.8 |
| 20260502193703 | 63 | 205 | 4.0 | 7.0 | 0.00 | 0.00 | 0.00 | 59 | 1018.7 |
| 20260502193603 | 63 | 205 | 4.0 | 7.0 | 0.00 | 0.00 | 0.00 | 59 | 1018.7 |
| 20260502193502 | 63 | 204 | 4.0 | 7.0 | 0.00 | 0.00 | 0.00 | 59 | 1018.8 |
| 20260502193404 | 63 | 204 | 4.0 | 7.0 | 0.00 | 0.00 | 0.00 | 59 | 1018.7 |
| 20260502193304 | 63 | 204 | 5.0 | 7.0 | 0.00 | 0.00 | 0.00 | 59 | 1018.7 |
| 20260502193203 | 63 | 205 | 5.0 | 7.0 | 0.00 | 0.00 | 0.00 | 59 | 1018.7 |
| 20260502193103 | 63 | 205 | 5.0 | 7.0 | 0.00 | 0.00 | 0.00 | 59 | 1018.8 |
| 20260502193003 | 63 | 206 | 5.0 | 7.0 | 0.00 | 0.00 | 0.00 | 59 | 1018.8 |
| 20260502192903 | 63 | 206 | 4.0 | 7.0 | 0.00 | 0.00 | 0.00 | 59 | 1018.7 |
| 20260502192804 | 63 | 207 | 4.0 | 7.0 | 0.00 | 0.00 | 0.00 | 59 | 1018.7 |
| 20260502192704 | 64 | 210 | 4.0 | 7.0 | 0.00 | 0.00 | 0.00 | 59 | 1018.7 |
| 20260502192603 | 64 | 210 | 4.0 | 7.0 | 0.00 | 0.00 | 0.00 | 59 | 1018.7 |
| 20260502192601 | 64 | 210 | 4.0 | 7.0 | 0.00 | 0.00 | 0.00 | 59 | 1018.6 |
| 20260502192503 | 64 | 210 | 4.0 | 7.0 | 0.00 | 0.00 | 0.00 | 59 | 1018.6 |
| 20260502192403 | 64 | 211 | 4.0 | 7.0 | 0.00 | 0.00 | 0.00 | 59 | 1018.6 |
| 20260502192304 | 64 | 212 | 4.0 | 7.0 | 0.00 | 0.00 | 0.00 | 59 | 1018.7 |
| 20260502192203 | 64 | 213 | 3.0 | 7.0 | 0.00 | 0.00 | 0.00 | 59 | 1018.6 |
| 20260502192103 | 64 | 214 | 3.0 | 7.0 | 0.00 | 0.00 | 0.00 | 59 | 1018.7 |
| 20260502192016 | 64 | 215 | 3.0 | 7.0 | 0.00 | 0.00 | 0.00 | 58 | 1018.7 |
| 20260502192003 | 64 | 215 | 3.0 | 7.0 | 0.00 | 0.00 | 0.00 | 59 | 1018.6 |
| 20260502192001 | 64 | 215 | 3.0 | 7.0 | 0.00 | 0.00 | 0.00 | 59 | 1018.7 |
| 20260502191916 | 64 | 216 | 3.0 | 7.0 | 0.00 | 0.00 | 0.00 | 58 | 1018.6 |
| 20260502191903 | 64 | 215 | 3.0 | 7.0 | 0.00 | 0.00 | 0.00 | 59 | 1018.7 |
| 20260502191803 | 64 | 215 | 3.0 | 7.0 | 0.00 | 0.00 | 0.00 | 58 | 1018.5 |
| 20260502191703 | 64 | 215 | 3.0 | 7.0 | 0.00 | 0.00 | 0.00 | 58 | 1018.7 |
| 20260502191605 | 64 | 215 | 3.0 | 7.0 | 0.00 | 0.00 | 0.00 | 58 | 1018.7 |
| 20260502191505 | 64 | 216 | 3.0 | 7.0 | 0.00 | 0.00 | 0.00 | 58 | 1018.6 |
| 20260502191402 | 64 | 218 | 3.0 | 7.0 | 0.00 | 0.00 | 0.00 | 59 | 1018.4 |
| 20260502191303 | 64 | 218 | 3.0 | 6.0 | 0.00 | 0.00 | 0.00 | 58 | 1018.6 |
| 20260502191203 | 64 | 218 | 3.0 | 6.0 | 0.00 | 0.00 | 0.00 | 59 | 1018.5 |
| 20260502191115 | 64 | 218 | 2.0 | 6.0 | 0.00 | 0.00 | 0.00 | 58 | 1018.5 |
| 20260502191102 | 64 | 217 | 3.0 | 6.0 | 0.00 | 0.00 | 0.00 | 58 | 1018.6 |
| 20260502191015 | 64 | 218 | 2.0 | 6.0 | 0.00 | 0.00 | 0.00 | 59 | 1018.5 |
| 20260502191004 | 64 | 217 | 2.0 | 6.0 | 0.00 | 0.00 | 0.00 | 58 | 1018.5 |
| 20260502190904 | 64 | 217 | 2.0 | 6.0 | 0.00 | 0.00 | 0.00 | 58 | 1018.5 |
| 20260502190801 | 64 | 217 | 2.0 | 6.0 | 0.00 | 0.00 | 0.00 | 58 | 1018.6 |
| 20260502190715 | 65 | 217 | 1.0 | 4.0 | 0.00 | 0.00 | 0.00 | 59 | 1018.5 |
| 20260502190703 | 64 | 218 | 2.0 | 6.0 | 0.00 | 0.00 | 0.00 | 58 | 1018.5 |
| 20260502190614 | 65 | 213 | 0.0 | 3.0 | 0.00 | 0.00 | 0.00 | 59 | 1018.5 |
| 20260502190603 | 64 | 218 | 2.0 | 6.0 | 0.00 | 0.00 | 0.00 | 59 | 1018.5 |
| 20260502190509 | 65 | 212 | 0.0 | 2.0 | 0.00 | 0.00 | 0.00 | 59 | 1018.5 |
| 20260502190502 | 64 | 218 | 1.0 | 6.0 | 0.00 | 0.00 | 0.00 | 59 | 1018.5 |
| 20260502190404 | 64 | 218 | 1.0 | 6.0 | 0.00 | 0.00 | 0.00 | 59 | 1018.5 |
| 20260502190314 | 65 | 212 | 1.0 | 2.0 | 0.00 | 0.00 | 0.00 | 59 | 1018.5 |
| 20260502190303 | 65 | 217 | 1.0 | 4.0 | 0.00 | 0.00 | 0.00 | 59 | 1018.5 |
| 20260502190203 | 65 | 213 | 0.0 | 3.0 | 0.00 | 0.00 | 0.00 | 59 | 1018.5 |
| 20260502190201 | 65 | 212 | 0.0 | 2.0 | 0.00 | 0.00 | 0.00 | 59 | 1018.5 |
| 20260502190109 | 65 | 211 | 1.0 | 3.0 | 0.00 | 0.00 | 0.00 | 58 | 1018.4 |
| 20260502190014 | 65 | 210 | 1.0 | 3.0 | 0.00 | 0.00 | 0.00 | 58 | 1018.5 |
| 20260502190009 | 65 | 208 | 1.0 | 3.0 | 0.00 | 0.00 | 0.00 | 58 | 1018.5 |
| 20260502190004 | 65 | 214 | 1.0 | 2.0 | 0.00 | 0.00 | 0.00 | 59 | 1018.5 |
| 20260502185903 | 65 | 212 | 1.0 | 2.0 | 0.00 | 0.00 | 0.00 | 59 | 1018.5 |
| 20260502185804 | 65 | 212 | 1.0 | 3.0 | 0.00 | 0.00 | 0.00 | 58 | 1018.5 |
| 20260502185759 | 65 | 206 | 1.0 | 3.0 | 0.00 | 0.00 | 0.00 | 58 | 1018.5 |
| 20260502185714 | 65 | 208 | 1.0 | 3.0 | 0.00 | 0.00 | 0.00 | 58 | 1018.4 |
| 20260502185704 | 65 | 211 | 1.0 | 3.0 | 0.00 | 0.00 | 0.00 | 58 | 1018.4 |
| 20260502185604 | 65 | 210 | 1.0 | 3.0 | 0.00 | 0.00 | 0.00 | 58 | 1018.5 |
| 20260502185601 | 65 | 208 | 1.0 | 3.0 | 0.00 | 0.00 | 0.00 | 58 | 1018.5 |
| 20260502185503 | 65 | 208 | 1.0 | 3.0 | 0.00 | 0.00 | 0.00 | 58 | 1018.5 |
| 20260502185403 | 65 | 206 | 1.0 | 3.0 | 0.00 | 0.00 | 0.00 | 58 | 1018.5 |
| 20260502185305 | 65 | 208 | 1.0 | 3.0 | 0.00 | 0.00 | 0.00 | 58 | 1018.4 |
| 20260502185204 | 65 | 208 | 1.0 | 3.0 | 0.00 | 0.00 | 0.00 | 58 | 1018.4 |
| 20260502185108 | 66 | 196 | 0.0 | 2.0 | 0.00 | 0.00 | 0.00 | 57 | 1018.3 |
| 20260502185103 | 65 | 208 | 1.0 | 3.0 | 0.00 | 0.00 | 0.00 | 57 | 1018.4 |
| 20260502185013 | 66 | 196 | 0.0 | 2.0 | 0.00 | 0.00 | 0.00 | 57 | 1018.3 |
| 20260502185003 | 65 | 208 | 0.0 | 3.0 | 0.00 | 0.00 | 0.00 | 57 | 1018.4 |
| 20260502185001 | 65 | 206 | 0.0 | 3.0 | 0.00 | 0.00 | 0.00 | 57 | 1018.4 |
| 20260502184903 | 65 | 206 | 0.0 | 3.0 | 0.00 | 0.00 | 0.00 | 57 | 1018.4 |
| 20260502184804 | 66 | 201 | 0.0 | 2.0 | 0.00 | 0.00 | 0.00 | 57 | 1018.4 |
| 20260502184707 | 66 | 194 | 1.0 | 3.0 | 0.00 | 0.00 | 0.00 | 56 | 1018.3 |
| 20260502184703 | 66 | 199 | 0.0 | 2.0 | 0.00 | 0.00 | 0.00 | 56 | 1018.3 |
| 20260502184701 | 66 | 196 | 0.0 | 2.0 | 0.00 | 0.00 | 0.00 | 57 | 1018.3 |
| 20260502184612 | 66 | 194 | 1.0 | 3.0 | 0.00 | 0.00 | 0.00 | 56 | 1018.3 |
| 20260502184603 | 66 | 196 | 0.0 | 2.0 | 0.00 | 0.00 | 0.00 | 57 | 1018.3 |
| 20260502184507 | 66 | 199 | 1.0 | 4.0 | 0.00 | 0.00 | 0.00 | 56 | 1018.2 |
| 20260502184503 | 66 | 192 | 0.0 | 2.0 | 0.00 | 0.00 | 0.00 | 57 | 1018.3 |
| 20260502184412 | 66 | 201 | 2.0 | 4.0 | 0.00 | 0.00 | 0.00 | 56 | 1018.2 |
| 20260502184403 | 66 | 191 | 0.0 | 3.0 | 0.00 | 0.00 | 0.00 | 56 | 1018.3 |
| 20260502184305 | 66 | 194 | 1.0 | 3.0 | 0.00 | 0.00 | 0.00 | 56 | 1018.3 |
| 20260502184212 | 66 | 204 | 2.0 | 4.0 | 0.00 | 0.00 | 0.00 | 56 | 1018.3 |
| 20260502184204 | 66 | 194 | 1.0 | 3.0 | 0.00 | 0.00 | 0.00 | 56 | 1018.3 |
| 20260502184103 | 66 | 199 | 1.0 | 4.0 | 0.00 | 0.00 | 0.00 | 56 | 1018.2 |
| 20260502184101 | 66 | 201 | 2.0 | 4.0 | 0.00 | 0.00 | 0.00 | 56 | 1018.2 |
| 20260502184012 | 66 | 209 | 3.0 | 4.0 | 0.00 | 0.00 | 0.00 | 56 | 1018.2 |
| 20260502184003 | 66 | 201 | 2.0 | 4.0 | 0.00 | 0.00 | 0.00 | 56 | 1018.2 |
| 20260502183912 | 66 | 209 | 3.0 | 4.0 | 0.00 | 0.00 | 0.00 | 56 | 1018.2 |
| 20260502183903 | 66 | 202 | 2.0 | 4.0 | 0.00 | 0.00 | 0.00 | 56 | 1018.3 |
| 20260502183857 | 66 | 211 | 3.0 | 4.0 | 0.00 | 0.00 | 0.00 | 56 | 1018.2 |
| 20260502183812 | 66 | 211 | 3.0 | 4.0 | 0.00 | 0.00 | 0.00 | 56 | 1018.2 |
| 20260502183802 | 66 | 204 | 2.0 | 4.0 | 0.00 | 0.00 | 0.00 | 56 | 1018.3 |
| 20260502183711 | 66 | 211 | 3.0 | 4.0 | 0.00 | 0.00 | 0.00 | 56 | 1018.2 |
| 20260502183704 | 66 | 205 | 2.0 | 4.0 | 0.00 | 0.00 | 0.00 | 56 | 1018.2 |
| 20260502183604 | 66 | 209 | 3.0 | 4.0 | 0.00 | 0.00 | 0.00 | 56 | 1018.2 |
| 20260502183506 | 66 | 210 | 3.0 | 4.0 | 0.00 | 0.00 | 0.00 | 55 | 1018.2 |
| 20260502183503 | 66 | 209 | 3.0 | 4.0 | 0.00 | 0.00 | 0.00 | 56 | 1018.2 |
| 20260502183501 | 66 | 211 | 3.0 | 4.0 | 0.00 | 0.00 | 0.00 | 56 | 1018.2 |
| 20260502183403 | 66 | 211 | 3.0 | 4.0 | 0.00 | 0.00 | 0.00 | 56 | 1018.2 |
| 20260502183351 | 66 | 210 | 3.0 | 4.0 | 0.00 | 0.00 | 0.00 | 55 | 1018.2 |
| 20260502183304 | 66 | 211 | 3.0 | 4.0 | 0.00 | 0.00 | 0.00 | 56 | 1018.2 |
| 20260502183202 | 66 | 211 | 3.0 | 4.0 | 0.00 | 0.00 | 0.00 | 56 | 1018.3 |
| 20260502183106 | 66 | 211 | 3.0 | 4.0 | 0.00 | 0.00 | 0.00 | 55 | 1018.0 |
| 20260502183104 | 66 | 210 | 3.0 | 4.0 | 0.00 | 0.00 | 0.00 | 55 | 1018.2 |
| 20260502183011 | 67 | 212 | 3.0 | 4.0 | 0.00 | 0.00 | 0.00 | 54 | 1018.1 |
| 20260502183004 | 66 | 210 | 3.0 | 4.0 | 0.00 | 0.00 | 0.00 | 55 | 1018.2 |
| 20260502182903 | 66 | 210 | 3.0 | 4.0 | 0.00 | 0.00 | 0.00 | 55 | 1018.3 |
| 20260502182804 | 66 | 210 | 3.0 | 4.0 | 0.00 | 0.00 | 0.00 | 55 | 1018.2 |
| 20260502182710 | 67 | 212 | 3.0 | 4.0 | 0.00 | 0.00 | 0.00 | 54 | 1018.2 |
| 20260502182704 | 66 | 211 | 3.0 | 4.0 | 0.00 | 0.00 | 0.00 | 55 | 1018.0 |
| 20260502182601 | 67 | 212 | 3.0 | 4.0 | 0.00 | 0.00 | 0.00 | 54 | 1018.1 |
| 20260502182510 | 67 | 212 | 3.0 | 4.0 | 0.00 | 0.00 | 0.00 | 55 | 1018.2 |
| 20260502182503 | 67 | 212 | 3.0 | 4.0 | 0.00 | 0.00 | 0.00 | 54 | 1018.1 |
| 20260502182403 | 67 | 211 | 3.0 | 4.0 | 0.00 | 0.00 | 0.00 | 54 | 1018.1 |
| 20260502182304 | 67 | 212 | 3.0 | 4.0 | 0.00 | 0.00 | 0.00 | 55 | 1018.1 |
| 20260502182301 | 67 | 212 | 3.0 | 4.0 | 0.00 | 0.00 | 0.00 | 54 | 1018.2 |
| 20260502182215 | 67 | 215 | 2.0 | 4.0 | 0.00 | 0.00 | 0.00 | 55 | 1018.1 |
| 20260502182203 | 67 | 212 | 3.0 | 4.0 | 0.00 | 0.00 | 0.00 | 54 | 1018.2 |
| 20260502182110 | 67 | 215 | 2.0 | 4.0 | 0.00 | 0.00 | 0.00 | 55 | 1018.1 |
| 20260502182103 | 67 | 212 | 3.0 | 4.0 | 0.00 | 0.00 | 0.00 | 55 | 1018.2 |
| 20260502182015 | 67 | 211 | 2.0 | 4.0 | 0.00 | 0.00 | 0.00 | 54 | 1018.1 |
| 20260502182002 | 67 | 213 | 3.0 | 4.0 | 0.00 | 0.00 | 0.00 | 55 | 1018.1 |
| 20260502181910 | 67 | 211 | 2.0 | 4.0 | 0.00 | 0.00 | 0.00 | 54 | 1018.1 |
| 20260502181904 | 67 | 214 | 2.0 | 4.0 | 0.00 | 0.00 | 0.00 | 55 | 1018.1 |
| 20260502181810 | 67 | 214 | 2.0 | 4.0 | 0.00 | 0.00 | 0.00 | 54 | 1018.1 |
| 20260502181804 | 67 | 215 | 2.0 | 4.0 | 0.00 | 0.00 | 0.00 | 55 | 1018.1 |
| 20260502181709 | 67 | 214 | 2.0 | 4.0 | 0.00 | 0.00 | 0.00 | 54 | 1018.1 |
| 20260502181702 | 67 | 215 | 2.0 | 4.0 | 0.00 | 0.00 | 0.00 | 55 | 1018.1 |
| 20260502181614 | 67 | 214 | 2.0 | 4.0 | 0.00 | 0.00 | 0.00 | 54 | 1018.0 |
| 20260502181603 | 67 | 211 | 2.0 | 4.0 | 0.00 | 0.00 | 0.00 | 54 | 1018.1 |
| 20260502181509 | 67 | 214 | 2.0 | 4.0 | 0.00 | 0.00 | 0.00 | 55 | 1018.0 |
| 20260502181503 | 67 | 211 | 2.0 | 4.0 | 0.00 | 0.00 | 0.00 | 54 | 1018.1 |
| 20260502181403 | 67 | 213 | 2.0 | 4.0 | 0.00 | 0.00 | 0.00 | 54 | 1018.1 |
| 20260502181401 | 67 | 214 | 2.0 | 4.0 | 0.00 | 0.00 | 0.00 | 54 | 1018.1 |
| 20260502181354 | 67 | 213 | 3.0 | 6.0 | 0.00 | 0.00 | 0.00 | 54 | 1018.0 |
| 20260502181305 | 67 | 214 | 2.0 | 4.0 | 0.00 | 0.00 | 0.00 | 54 | 1018.1 |
| 20260502181214 | 67 | 211 | 3.0 | 6.0 | 0.00 | 0.00 | 0.00 | 53 | 1018.1 |
| 20260502181203 | 67 | 214 | 2.0 | 4.0 | 0.00 | 0.00 | 0.00 | 54 | 1018.0 |
| 20260502181114 | 67 | 210 | 3.0 | 6.0 | 0.00 | 0.00 | 0.00 | 53 | 1018.0 |
| 20260502181102 | 67 | 214 | 2.0 | 4.0 | 0.00 | 0.00 | 0.00 | 55 | 1018.0 |
| 20260502181009 | 67 | 211 | 3.0 | 6.0 | 0.00 | 0.00 | 0.00 | 52 | 1018.0 |
| 20260502181004 | 67 | 213 | 3.0 | 6.0 | 0.00 | 0.00 | 0.00 | 54 | 1018.0 |
| 20260502180914 | 67 | 211 | 3.0 | 6.0 | 0.00 | 0.00 | 0.00 | 52 | 1018.0 |
| 20260502180904 | 67 | 211 | 3.0 | 6.0 | 0.00 | 0.00 | 0.00 | 53 | 1018.1 |
| 20260502180801 | 67 | 211 | 3.0 | 6.0 | 0.00 | 0.00 | 0.00 | 53 | 1018.1 |
| 20260502180713 | 67 | 208 | 3.0 | 6.0 | 0.00 | 0.00 | 0.00 | 51 | 1018.0 |
| 20260502180703 | 67 | 210 | 3.0 | 6.0 | 0.00 | 0.00 | 0.00 | 53 | 1018.0 |
| 20260502180603 | 67 | 211 | 3.0 | 6.0 | 0.00 | 0.00 | 0.00 | 52 | 1018.0 |
| 20260502180502 | 67 | 211 | 3.0 | 6.0 | 0.00 | 0.00 | 0.00 | 52 | 1018.0 |
| 20260502180404 | 67 | 209 | 3.0 | 6.0 | 0.00 | 0.00 | 0.00 | 51 | 1017.9 |
| 20260502180304 | 67 | 208 | 3.0 | 6.0 | 0.00 | 0.00 | 0.00 | 51 | 1018.0 |
| 20260502180204 | 68 | 208 | 3.0 | 6.0 | 0.00 | 0.00 | 0.00 | 51 | 1018.0 |
| 20260502180201 | 68 | 209 | 3.0 | 6.0 | 0.00 | 0.00 | 0.00 | 52 | 1017.9 |
| 20260502170502 | 71 | 105 | 0.0 | 3.0 | 0.00 | 0.00 | 0.00 | 45 | 1017.7 |
| 20260502170458 | 71 | 146 | 0.0 | 2.0 | 0.00 | 0.00 | 0.00 | 44 | 1017.7 |
| 20260502170404 | 71 | 103 | 0.0 | 3.0 | 0.00 | 0.00 | 0.00 | 44 | 1017.6 |
| 20260502170304 | 71 | 106 | 0.0 | 3.0 | 0.00 | 0.00 | 0.00 | 44 | 1017.7 |
| 20260502170213 | 71 | 196 | 0.0 | 2.0 | 0.00 | 0.00 | 0.00 | 44 | 1017.6 |
| 20260502170201 | 71 | 106 | 0.0 | 2.0 | 0.00 | 0.00 | 0.00 | 45 | 1017.7 |
| 20260502170113 | 71 | 285 | 0.0 | 2.0 | 0.00 | 0.00 | 0.00 | 44 | 1017.6 |
| 20260502170103 | 71 | 146 | 0.0 | 2.0 | 0.00 | 0.00 | 0.00 | 44 | 1017.7 |
| 20260502164311 | 72 | 82 | 3.0 | 9.0 | 0.00 | 0.00 | 0.00 | 43 | 1017.7 |
| 20260502164303 | 71 | 80 | 3.0 | 9.0 | 0.00 | 0.00 | 0.00 | 43 | 1017.7 |
| 20260502164206 | 72 | 83 | 3.0 | 9.0 | 0.00 | 0.00 | 0.00 | 43 | 1017.6 |
| 20260502164204 | 71 | 79 | 3.0 | 9.0 | 0.00 | 0.00 | 0.00 | 43 | 1017.7 |
| 20260502164106 | 72 | 83 | 3.0 | 9.0 | 0.00 | 0.00 | 0.00 | 43 | 1017.6 |
| 20260502164103 | 71 | 80 | 3.0 | 9.0 | 0.00 | 0.00 | 0.00 | 43 | 1017.7 |
| 20260502164101 | 72 | 80 | 3.0 | 9.0 | 0.00 | 0.00 | 0.00 | 43 | 1017.7 |
| 20260502164006 | 72 | 83 | 4.0 | 9.0 | 0.00 | 0.00 | 0.00 | 43 | 1017.7 |
| 20260502164003 | 72 | 80 | 3.0 | 9.0 | 0.00 | 0.00 | 0.00 | 43 | 1017.7 |
| 20260502163911 | 72 | 80 | 3.0 | 8.0 | 0.00 | 0.00 | 0.00 | 43 | 1017.7 |
| 20260502163906 | 72 | 81 | 3.0 | 8.0 | 0.00 | 0.00 | 0.00 | 43 | 1017.7 |
| 20260502163903 | 72 | 82 | 3.0 | 9.0 | 0.00 | 0.00 | 0.00 | 43 | 1017.7 |
| 20260502163811 | 72 | 82 | 3.0 | 8.0 | 0.00 | 0.00 | 0.00 | 43 | 1017.7 |
| 20260502163803 | 72 | 83 | 3.0 | 9.0 | 0.00 | 0.00 | 0.00 | 43 | 1017.6 |
| 20260502163706 | 72 | 82 | 3.0 | 8.0 | 0.00 | 0.00 | 0.00 | 43 | 1017.7 |
| 20260502163704 | 72 | 83 | 3.0 | 9.0 | 0.00 | 0.00 | 0.00 | 43 | 1017.6 |
| 20260502163616 | 72 | 84 | 4.0 | 8.0 | 0.00 | 0.00 | 0.00 | 43 | 1017.7 |
| 20260502163604 | 72 | 83 | 4.0 | 9.0 | 0.00 | 0.00 | 0.00 | 43 | 1017.7 |
| 20260502163510 | 72 | 85 | 4.0 | 8.0 | 0.00 | 0.00 | 0.00 | 43 | 1017.7 |
| 20260502163503 | 72 | 80 | 3.0 | 8.0 | 0.00 | 0.00 | 0.00 | 43 | 1017.7 |
| 20260502163501 | 72 | 81 | 3.0 | 8.0 | 0.00 | 0.00 | 0.00 | 43 | 1017.7 |
| 20260502163403 | 72 | 82 | 3.0 | 8.0 | 0.00 | 0.00 | 0.00 | 43 | 1017.7 |
| 20260502163310 | 72 | 85 | 4.0 | 8.0 | 0.00 | 0.00 | 0.00 | 43 | 1017.9 |
| 20260502163304 | 72 | 82 | 3.0 | 8.0 | 0.00 | 0.00 | 0.00 | 43 | 1017.7 |
| 20260502163210 | 72 | 82 | 3.0 | 8.0 | 0.00 | 0.00 | 0.00 | 42 | 1017.8 |
| 20260502163202 | 72 | 84 | 4.0 | 8.0 | 0.00 | 0.00 | 0.00 | 43 | 1017.7 |
| 20260502163115 | 72 | 88 | 3.0 | 8.0 | 0.00 | 0.00 | 0.00 | 42 | 1017.8 |
| 20260502163104 | 72 | 85 | 4.0 | 8.0 | 0.00 | 0.00 | 0.00 | 43 | 1017.7 |
| 20260502163010 | 72 | 88 | 3.0 | 8.0 | 0.00 | 0.00 | 0.00 | 42 | 1017.8 |
| 20260502163004 | 72 | 85 | 4.0 | 8.0 | 0.00 | 0.00 | 0.00 | 43 | 1017.8 |
| 20260502162915 | 72 | 88 | 3.0 | 8.0 | 0.00 | 0.00 | 0.00 | 42 | 1017.8 |
| 20260502162903 | 72 | 85 | 4.0 | 8.0 | 0.00 | 0.00 | 0.00 | 43 | 1017.9 |
| 20260502162804 | 72 | 82 | 3.0 | 8.0 | 0.00 | 0.00 | 0.00 | 42 | 1017.8 |
| 20260502162715 | 73 | 86 | 3.0 | 7.0 | 0.00 | 0.00 | 0.00 | 42 | 1017.7 |
| 20260502162704 | 72 | 88 | 3.0 | 8.0 | 0.00 | 0.00 | 0.00 | 42 | 1017.8 |
| 20260502162610 | 73 | 88 | 3.0 | 7.0 | 0.00 | 0.00 | 0.00 | 42 | 1017.8 |
| 20260502162601 | 72 | 88 | 3.0 | 8.0 | 0.00 | 0.00 | 0.00 | 42 | 1017.8 |
| 20260502162515 | 73 | 90 | 3.0 | 7.0 | 0.00 | 0.00 | 0.00 | 42 | 1017.9 |
| 20260502162503 | 72 | 88 | 3.0 | 8.0 | 0.00 | 0.00 | 0.00 | 42 | 1017.8 |
| 20260502162415 | 73 | 92 | 3.0 | 7.0 | 0.00 | 0.00 | 0.00 | 43 | 1017.8 |
| 20260502162403 | 72 | 87 | 3.0 | 7.0 | 0.00 | 0.00 | 0.00 | 42 | 1017.8 |
| 20260502162304 | 73 | 86 | 3.0 | 7.0 | 0.00 | 0.00 | 0.00 | 42 | 1017.7 |
| 20260502162204 | 73 | 88 | 3.0 | 7.0 | 0.00 | 0.00 | 0.00 | 42 | 1017.8 |
| 20260502162109 | 73 | 91 | 3.0 | 7.0 | 0.00 | 0.00 | 0.00 | 41 | 1017.8 |
| 20260502162103 | 73 | 90 | 3.0 | 7.0 | 0.00 | 0.00 | 0.00 | 42 | 1017.9 |
| 20260502162009 | 73 | 91 | 3.0 | 7.0 | 0.00 | 0.00 | 0.00 | 41 | 1017.8 |
| 20260502162001 | 73 | 92 | 3.0 | 7.0 | 0.00 | 0.00 | 0.00 | 43 | 1017.8 |
| 20260502161914 | 73 | 92 | 3.0 | 7.0 | 0.00 | 0.00 | 0.00 | 41 | 1017.9 |
| 20260502161903 | 72 | 90 | 3.0 | 7.0 | 0.00 | 0.00 | 0.00 | 42 | 1017.8 |
| 20260502161809 | 73 | 91 | 3.0 | 7.0 | 0.00 | 0.00 | 0.00 | 41 | 1017.9 |
| 20260502161803 | 72 | 91 | 3.0 | 7.0 | 0.00 | 0.00 | 0.00 | 42 | 1017.9 |
| 20260502161709 | 73 | 89 | 4.0 | 7.0 | 0.00 | 0.00 | 0.00 | 41 | 1017.9 |
| 20260502161701 | 73 | 91 | 3.0 | 7.0 | 0.00 | 0.00 | 0.00 | 41 | 1017.8 |
| 20260502161603 | 73 | 91 | 3.0 | 7.0 | 0.00 | 0.00 | 0.00 | 41 | 1017.8 |
| 20260502161509 | 72 | 86 | 3.0 | 7.0 | 0.00 | 0.00 | 0.00 | 42 | 1018.0 |
| 20260502161504 | 73 | 92 | 3.0 | 7.0 | 0.00 | 0.00 | 0.00 | 41 | 1017.9 |
| 20260502161402 | 73 | 91 | 3.0 | 7.0 | 0.00 | 0.00 | 0.00 | 41 | 1017.9 |
| 20260502161349 | 72 | 87 | 4.0 | 9.0 | 0.00 | 0.00 | 0.00 | 43 | 1018.0 |
| 20260502161304 | 73 | 89 | 4.0 | 7.0 | 0.00 | 0.00 | 0.00 | 41 | 1017.9 |
| 20260502161213 | 72 | 88 | 4.0 | 9.0 | 0.00 | 0.00 | 0.00 | 42 | 1018.0 |
| 20260502161203 | 73 | 89 | 3.0 | 7.0 | 0.00 | 0.00 | 0.00 | 41 | 1017.9 |
| 20260502161113 | 72 | 84 | 4.0 | 9.0 | 0.00 | 0.00 | 0.00 | 42 | 1018.0 |
| 20260502161101 | 72 | 86 | 3.0 | 7.0 | 0.00 | 0.00 | 0.00 | 42 | 1018.0 |
| 20260502161008 | 72 | 83 | 4.0 | 9.0 | 0.00 | 0.00 | 0.00 | 42 | 1017.9 |
| 20260502161003 | 72 | 87 | 4.0 | 9.0 | 0.00 | 0.00 | 0.00 | 43 | 1018.0 |
| 20260502160903 | 72 | 87 | 4.0 | 9.0 | 0.00 | 0.00 | 0.00 | 43 | 1018.0 |
| 20260502160802 | 72 | 88 | 4.0 | 9.0 | 0.00 | 0.00 | 0.00 | 42 | 1018.0 |
| 20260502160713 | 73 | 79 | 4.0 | 9.0 | 0.00 | 0.00 | 0.00 | 41 | 1018.0 |
| 20260502160704 | 72 | 84 | 4.0 | 9.0 | 0.00 | 0.00 | 0.00 | 42 | 1018.0 |
| 20260502160604 | 72 | 83 | 4.0 | 9.0 | 0.00 | 0.00 | 0.00 | 42 | 1017.9 |
| 20260502160501 | 72 | 83 | 4.0 | 9.0 | 0.00 | 0.00 | 0.00 | 41 | 1017.9 |
| 20260502160403 | 72 | 80 | 4.0 | 9.0 | 0.00 | 0.00 | 0.00 | 41 | 1018.0 |
| 20260502160304 | 73 | 79 | 4.0 | 9.0 | 0.00 | 0.00 | 0.00 | 41 | 1018.0 |
| 20260502160202 | 73 | 79 | 4.0 | 9.0 | 0.00 | 0.00 | 0.00 | 41 | 1018.0 |
| 20260502160104 | 73 | 79 | 4.0 | 9.0 | 0.00 | 0.00 | 0.00 | 41 | 1017.9 |
| 20260502152301 | 72 | 77 | 6.0 | 11.0 | 0.00 | 0.00 | 0.00 | 41 | 1018.3 |
| 20260502152203 | 72 | 79 | 6.0 | 11.0 | 0.00 | 0.00 | 0.00 | 41 | 1018.4 |
| 20260502152114 | 72 | 77 | 5.0 | 11.0 | 0.00 | 0.00 | 0.00 | 42 | 1018.4 |
| 20260502152103 | 72 | 79 | 6.0 | 11.0 | 0.00 | 0.00 | 0.00 | 41 | 1018.4 |
| 20260502152002 | 72 | 78 | 6.0 | 11.0 | 0.00 | 0.00 | 0.00 | 41 | 1018.3 |
| 20260502151904 | 72 | 79 | 6.0 | 11.0 | 0.00 | 0.00 | 0.00 | 41 | 1018.4 |
| 20260502151804 | 72 | 79 | 5.0 | 11.0 | 0.00 | 0.00 | 0.00 | 42 | 1018.4 |
| 20260502151713 | 73 | 85 | 4.0 | 11.0 | 0.00 | 0.00 | 0.00 | 40 | 1018.3 |
| 20260502151702 | 72 | 77 | 5.0 | 11.0 | 0.00 | 0.00 | 0.00 | 42 | 1018.4 |
| 20260502151603 | 72 | 75 | 5.0 | 11.0 | 0.00 | 0.00 | 0.00 | 41 | 1018.4 |
| 20260502151513 | 73 | 89 | 4.0 | 10.0 | 0.00 | 0.00 | 0.00 | 41 | 1018.4 |
| 20260502151503 | 72 | 77 | 5.0 | 11.0 | 0.00 | 0.00 | 0.00 | 41 | 1018.4 |
| 20260502151403 | 72 | 82 | 5.0 | 11.0 | 0.00 | 0.00 | 0.00 | 41 | 1018.4 |
| 20260502151304 | 73 | 85 | 4.0 | 11.0 | 0.00 | 0.00 | 0.00 | 40 | 1018.3 |
| 20260502151204 | 73 | 89 | 4.0 | 10.0 | 0.00 | 0.00 | 0.00 | 41 | 1018.4 |
| 20260502151101 | 73 | 89 | 4.0 | 10.0 | 0.00 | 0.00 | 0.00 | 41 | 1018.4 |
| 20260502151003 | 73 | 87 | 4.0 | 10.0 | 0.00 | 0.00 | 0.00 | 41 | 1018.4 |
| 20260502150903 | 73 | 83 | 4.0 | 10.0 | 0.00 | 0.00 | 0.00 | 40 | 1018.5 |
| 20260502150802 | 73 | 76 | 4.0 | 10.0 | 0.00 | 0.00 | 0.00 | 41 | 1018.5 |
| 20260502150703 | 72 | 74 | 4.0 | 10.0 | 0.00 | 0.00 | 0.00 | 41 | 1018.4 |
| 20260502150603 | 72 | 77 | 4.0 | 10.0 | 0.00 | 0.00 | 0.00 | 41 | 1018.4 |
| 20260502150502 | 72 | 78 | 5.0 | 11.0 | 0.00 | 0.00 | 0.00 | 42 | 1018.5 |
| 20260502150412 | 72 | 83 | 7.0 | 12.0 | 0.00 | 0.00 | 0.00 | 42 | 1018.5 |
| 20260502150404 | 72 | 78 | 5.0 | 11.0 | 0.00 | 0.00 | 0.00 | 42 | 1018.5 |
| 20260502150312 | 72 | 85 | 7.0 | 12.0 | 0.00 | 0.00 | 0.00 | 41 | 1018.5 |
| 20260502150304 | 72 | 81 | 5.0 | 11.0 | 0.00 | 0.00 | 0.00 | 41 | 1018.5 |
| 20260502150212 | 72 | 87 | 7.0 | 12.0 | 0.00 | 0.00 | 0.00 | 40 | 1018.6 |
| 20260502150201 | 72 | 82 | 6.0 | 12.0 | 0.00 | 0.00 | 0.00 | 41 | 1018.4 |
| 20260502150103 | 72 | 81 | 6.0 | 12.0 | 0.00 | 0.00 | 0.00 | 42 | 1018.4 |
| 20260502140103 | 71 | 73 | 7.0 | 14.0 | 0.00 | 0.00 | 0.00 | 42 | 1019.2 |
| 20260502130704 | 70 | 84 | 8.0 | 13.0 | 0.00 | 0.00 | 0.00 | 41 | 1020.2 |
| 20260502130603 | 70 | 85 | 8.0 | 13.0 | 0.00 | 0.00 | 0.00 | 41 | 1020.3 |
| 20260502130501 | 70 | 83 | 8.0 | 13.0 | 0.00 | 0.00 | 0.00 | 41 | 1020.3 |
| 20260502130403 | 70 | 81 | 8.0 | 13.0 | 0.00 | 0.00 | 0.00 | 42 | 1020.2 |
| 20260502130303 | 70 | 81 | 8.0 | 13.0 | 0.00 | 0.00 | 0.00 | 42 | 1020.2 |
| 20260502130202 | 70 | 80 | 8.0 | 13.0 | 0.00 | 0.00 | 0.00 | 43 | 1020.3 |
| 20260502130104 | 70 | 81 | 8.0 | 13.0 | 0.00 | 0.00 | 0.00 | 42 | 1020.3 |
| 20260502123802 | 70 | 76 | 6.0 | 13.0 | 0.00 | 0.00 | 0.00 | 42 | 1020.6 |
| 20260502123703 | 70 | 78 | 6.0 | 13.0 | 0.00 | 0.00 | 0.00 | 41 | 1020.6 |
| 20260502123613 | 70 | 80 | 6.0 | 13.0 | 0.00 | 0.00 | 0.00 | 42 | 1020.7 |
| 20260502123603 | 70 | 79 | 6.0 | 13.0 | 0.00 | 0.00 | 0.00 | 41 | 1020.6 |
| 20260502123503 | 71 | 81 | 5.0 | 13.0 | 0.00 | 0.00 | 0.00 | 42 | 1020.7 |
| 20260502123501 | 70 | 79 | 5.0 | 13.0 | 0.00 | 0.00 | 0.00 | 43 | 1020.7 |
| 20260502123403 | 70 | 79 | 6.0 | 13.0 | 0.00 | 0.00 | 0.00 | 42 | 1020.6 |
| 20260502123304 | 70 | 79 | 6.0 | 13.0 | 0.00 | 0.00 | 0.00 | 42 | 1020.6 |
| 20260502123201 | 70 | 80 | 6.0 | 13.0 | 0.00 | 0.00 | 0.00 | 42 | 1020.7 |
| 20260502123103 | 70 | 77 | 7.0 | 11.0 | 0.00 | 0.00 | 0.00 | 42 | 1020.6 |
| 20260502123004 | 70 | 74 | 6.0 | 11.0 | 0.00 | 0.00 | 0.00 | 42 | 1020.6 |
| 20260502122903 | 70 | 72 | 7.0 | 11.0 | 0.00 | 0.00 | 0.00 | 42 | 1020.7 |
| 20260502122901 | 70 | 72 | 7.0 | 11.0 | 0.00 | 0.00 | 0.00 | 43 | 1020.9 |
| 20260502122803 | 70 | 72 | 7.0 | 11.0 | 0.00 | 0.00 | 0.00 | 43 | 1020.9 |
| 20260502122704 | 70 | 72 | 7.0 | 11.0 | 0.00 | 0.00 | 0.00 | 43 | 1020.8 |
| 20260502122602 | 69 | 73 | 7.0 | 11.0 | 0.00 | 0.00 | 0.00 | 43 | 1020.8 |
| 20260502122504 | 69 | 74 | 7.0 | 11.0 | 0.00 | 0.00 | 0.00 | 43 | 1020.8 |
| 20260502122404 | 69 | 75 | 7.0 | 11.0 | 0.00 | 0.00 | 0.00 | 43 | 1020.8 |
| 20260502122305 | 69 | 75 | 7.0 | 11.0 | 0.00 | 0.00 | 0.00 | 43 | 1020.8 |
| 20260502122204 | 69 | 74 | 7.0 | 11.0 | 0.00 | 0.00 | 0.00 | 43 | 1020.9 |
| 20260502122104 | 69 | 73 | 6.0 | 11.0 | 0.00 | 0.00 | 0.00 | 43 | 1020.9 |
| 20260502122001 | 69 | 74 | 6.0 | 11.0 | 0.00 | 0.00 | 0.00 | 42 | 1020.8 |
| 20260502121903 | 69 | 75 | 6.0 | 11.0 | 0.00 | 0.00 | 0.00 | 42 | 1020.9 |
| 20260502121803 | 70 | 77 | 6.0 | 11.0 | 0.00 | 0.00 | 0.00 | 41 | 1020.8 |
| 20260502121701 | 70 | 80 | 5.0 | 10.0 | 0.00 | 0.00 | 0.00 | 42 | 1021.0 |
| 20260502121603 | 70 | 80 | 5.0 | 10.0 | 0.00 | 0.00 | 0.00 | 42 | 1021.0 |
| 20260502121503 | 70 | 79 | 6.0 | 11.0 | 0.00 | 0.00 | 0.00 | 43 | 1021.0 |
| 20260502121403 | 69 | 78 | 6.0 | 11.0 | 0.00 | 0.00 | 0.00 | 43 | 1021.0 |
| 20260502121304 | 69 | 77 | 6.0 | 11.0 | 0.00 | 0.00 | 0.00 | 43 | 1021.0 |
| 20260502121203 | 69 | 78 | 7.0 | 11.0 | 0.00 | 0.00 | 0.00 | 42 | 1021.0 |
| 20260502121101 | 69 | 78 | 7.0 | 11.0 | 0.00 | 0.00 | 0.00 | 43 | 1021.1 |
| 20260502121003 | 69 | 79 | 7.0 | 11.0 | 0.00 | 0.00 | 0.00 | 43 | 1021.1 |
| 20260502120905 | 69 | 79 | 7.0 | 11.0 | 0.00 | 0.00 | 0.00 | 43 | 1021.1 |
| 20260502120816 | 69 | 82 | 7.0 | 13.0 | 0.00 | 0.00 | 0.00 | 43 | 1021.2 |
| 20260502120802 | 69 | 79 | 7.0 | 13.0 | 0.00 | 0.00 | 0.00 | 44 | 1021.2 |
| 20260502120703 | 69 | 81 | 8.0 | 13.0 | 0.00 | 0.00 | 0.00 | 44 | 1021.1 |
| 20260502120603 | 68 | 80 | 8.0 | 13.0 | 0.00 | 0.00 | 0.00 | 44 | 1021.2 |
| 20260502120502 | 69 | 81 | 8.0 | 13.0 | 0.00 | 0.00 | 0.00 | 43 | 1021.1 |
| 20260502120404 | 69 | 82 | 7.0 | 13.0 | 0.00 | 0.00 | 0.00 | 43 | 1021.2 |
| 20260502120304 | 69 | 83 | 7.0 | 13.0 | 0.00 | 0.00 | 0.00 | 44 | 1021.3 |
| 20260502120215 | 69 | 90 | 6.0 | 12.0 | 0.00 | 0.00 | 0.00 | 43 | 1021.3 |
| 20260502120201 | 69 | 84 | 7.0 | 13.0 | 0.00 | 0.00 | 0.00 | 43 | 1021.3 |
| 20260502115903 | 69 | 88 | 7.0 | 13.0 | 0.00 | 0.00 | 0.00 | 43 | 1021.3 |
| 20260502115901 | 69 | 90 | 6.0 | 12.0 | 0.00 | 0.00 | 0.00 | 43 | 1021.3 |
| 20260502115804 | 69 | 90 | 6.0 | 12.0 | 0.00 | 0.00 | 0.00 | 43 | 1021.3 |
| 20260502115703 | 69 | 90 | 6.0 | 13.0 | 0.00 | 0.00 | 0.00 | 42 | 1021.4 |
| 20260502115603 | 69 | 91 | 6.0 | 13.0 | 0.00 | 0.00 | 0.00 | 43 | 1021.4 |
| 20260502115601 | 69 | 91 | 6.0 | 13.0 | 0.00 | 0.00 | 0.00 | 43 | 1021.3 |
| 20260502115503 | 69 | 91 | 6.0 | 13.0 | 0.00 | 0.00 | 0.00 | 43 | 1021.3 |
| 20260502115403 | 69 | 90 | 7.0 | 13.0 | 0.00 | 0.00 | 0.00 | 43 | 1021.3 |
| 20260502115301 | 69 | 90 | 7.0 | 13.0 | 0.00 | 0.00 | 0.00 | 42 | 1021.4 |
| 20260502115215 | 68 | 88 | 8.0 | 13.0 | 0.00 | 0.00 | 0.00 | 43 | 1021.5 |
| 20260502115204 | 69 | 90 | 7.0 | 13.0 | 0.00 | 0.00 | 0.00 | 42 | 1021.4 |
| 20260502115104 | 69 | 90 | 7.0 | 13.0 | 0.00 | 0.00 | 0.00 | 42 | 1021.4 |
| 20260502115002 | 69 | 90 | 7.0 | 13.0 | 0.00 | 0.00 | 0.00 | 42 | 1021.4 |
| 20260502114904 | 69 | 90 | 7.0 | 13.0 | 0.00 | 0.00 | 0.00 | 42 | 1021.5 |
| 20260502114803 | 68 | 88 | 8.0 | 13.0 | 0.00 | 0.00 | 0.00 | 43 | 1021.5 |
| 20260502114714 | 68 | 86 | 7.0 | 12.0 | 0.00 | 0.00 | 0.00 | 43 | 1021.5 |
| 20260502114702 | 68 | 88 | 8.0 | 12.0 | 0.00 | 0.00 | 0.00 | 43 | 1021.5 |
| 20260502114604 | 68 | 87 | 8.0 | 12.0 | 0.00 | 0.00 | 0.00 | 43 | 1021.6 |
| 20260502114504 | 68 | 87 | 8.0 | 12.0 | 0.00 | 0.00 | 0.00 | 43 | 1021.6 |
| 20260502114401 | 68 | 86 | 8.0 | 12.0 | 0.00 | 0.00 | 0.00 | 43 | 1021.7 |
| 20260502114303 | 68 | 86 | 7.0 | 12.0 | 0.00 | 0.00 | 0.00 | 43 | 1021.5 |
| 20260502114203 | 68 | 84 | 7.0 | 12.0 | 0.00 | 0.00 | 0.00 | 43 | 1021.6 |
| 20260502114102 | 68 | 84 | 7.0 | 12.0 | 0.00 | 0.00 | 0.00 | 43 | 1021.6 |
| 20260502114004 | 68 | 83 | 7.0 | 12.0 | 0.00 | 0.00 | 0.00 | 43 | 1021.7 |
| 20260502113904 | 68 | 83 | 7.0 | 12.0 | 0.00 | 0.00 | 0.00 | 43 | 1021.6 |
| 20260502113803 | 68 | 84 | 7.0 | 12.0 | 0.00 | 0.00 | 0.00 | 43 | 1021.7 |
| 20260502113801 | 68 | 82 | 7.0 | 12.0 | 0.00 | 0.00 | 0.00 | 43 | 1021.7 |
| 20260502113704 | 68 | 82 | 7.0 | 12.0 | 0.00 | 0.00 | 0.00 | 43 | 1021.7 |
| 20260502113613 | 68 | 81 | 6.0 | 11.0 | 0.00 | 0.00 | 0.00 | 43 | 1021.9 |
| 20260502113604 | 68 | 81 | 7.0 | 12.0 | 0.00 | 0.00 | 0.00 | 44 | 1021.8 |
| 20260502113502 | 68 | 81 | 7.0 | 12.0 | 0.00 | 0.00 | 0.00 | 44 | 1021.8 |
| 20260502113404 | 68 | 80 | 7.0 | 11.0 | 0.00 | 0.00 | 0.00 | 44 | 1021.7 |
| 20260502113303 | 68 | 80 | 6.0 | 11.0 | 0.00 | 0.00 | 0.00 | 43 | 1021.8 |
| 20260502113202 | 68 | 81 | 6.0 | 11.0 | 0.00 | 0.00 | 0.00 | 43 | 1021.9 |
| 20260502113104 | 68 | 80 | 6.0 | 11.0 | 0.00 | 0.00 | 0.00 | 43 | 1021.8 |
| 20260502113004 | 68 | 78 | 5.0 | 10.0 | 0.00 | 0.00 | 0.00 | 43 | 1021.8 |
| 20260502112901 | 68 | 81 | 5.0 | 10.0 | 0.00 | 0.00 | 0.00 | 43 | 1021.9 |
| 20260502112803 | 68 | 81 | 5.0 | 10.0 | 0.00 | 0.00 | 0.00 | 43 | 1021.9 |
| 20260502112704 | 68 | 81 | 5.0 | 10.0 | 0.00 | 0.00 | 0.00 | 43 | 1021.9 |
| 20260502112602 | 68 | 83 | 5.0 | 10.0 | 0.00 | 0.00 | 0.00 | 42 | 1021.9 |
| 20260502112504 | 68 | 84 | 5.0 | 10.0 | 0.00 | 0.00 | 0.00 | 42 | 1021.8 |
| 20260502112404 | 68 | 86 | 5.0 | 10.0 | 0.00 | 0.00 | 0.00 | 42 | 1021.8 |
| 20260502112305 | 69 | 88 | 5.0 | 10.0 | 0.00 | 0.00 | 0.00 | 42 | 1021.9 |
| 20260502112204 | 68 | 87 | 5.0 | 10.0 | 0.00 | 0.00 | 0.00 | 42 | 1021.9 |
| 20260502112104 | 68 | 87 | 5.0 | 10.0 | 0.00 | 0.00 | 0.00 | 42 | 1021.9 |
| 20260502112002 | 68 | 90 | 5.0 | 10.0 | 0.00 | 0.00 | 0.00 | 42 | 1021.9 |
| 20260502111904 | 68 | 89 | 5.0 | 10.0 | 0.00 | 0.00 | 0.00 | 42 | 1022.0 |
| 20260502111803 | 68 | 88 | 5.0 | 10.0 | 0.00 | 0.00 | 0.00 | 43 | 1022.1 |
| 20260502111701 | 67 | 89 | 6.0 | 10.0 | 0.00 | 0.00 | 0.00 | 43 | 1022.0 |
| 20260502111603 | 67 | 90 | 6.0 | 10.0 | 0.00 | 0.00 | 0.00 | 42 | 1022.1 |
| 20260502111503 | 67 | 91 | 6.0 | 10.0 | 0.00 | 0.00 | 0.00 | 43 | 1022.0 |
| 20260502111416 | 68 | 90 | 5.0 | 10.0 | 0.00 | 0.00 | 0.00 | 42 | 1022.2 |
| 20260502111403 | 67 | 91 | 6.0 | 10.0 | 0.00 | 0.00 | 0.00 | 43 | 1022.0 |
| 20260502111316 | 68 | 90 | 5.0 | 10.0 | 0.00 | 0.00 | 0.00 | 42 | 1022.1 |
| 20260502111304 | 67 | 89 | 6.0 | 10.0 | 0.00 | 0.00 | 0.00 | 43 | 1022.1 |
| 20260502111203 | 68 | 90 | 5.0 | 10.0 | 0.00 | 0.00 | 0.00 | 42 | 1022.0 |
| 20260502111103 | 68 | 91 | 5.0 | 10.0 | 0.00 | 0.00 | 0.00 | 42 | 1022.1 |
| 20260502111005 | 68 | 90 | 5.0 | 10.0 | 0.00 | 0.00 | 0.00 | 42 | 1022.2 |
| 20260502110904 | 68 | 90 | 5.0 | 10.0 | 0.00 | 0.00 | 0.00 | 42 | 1022.1 |
| 20260502110802 | 68 | 93 | 5.0 | 10.0 | 0.00 | 0.00 | 0.00 | 41 | 1022.1 |
| 20260502110704 | 68 | 93 | 5.0 | 10.0 | 0.00 | 0.00 | 0.00 | 41 | 1022.1 |
| 20260502110604 | 68 | 93 | 5.0 | 10.0 | 0.00 | 0.00 | 0.00 | 42 | 1022.2 |
| 20260502110502 | 68 | 91 | 5.0 | 10.0 | 0.00 | 0.00 | 0.00 | 43 | 1022.2 |
| 20260502110404 | 68 | 92 | 5.0 | 10.0 | 0.00 | 0.00 | 0.00 | 43 | 1022.2 |
| 20260502110304 | 68 | 93 | 5.0 | 10.0 | 0.00 | 0.00 | 0.00 | 43 | 1022.3 |
| 20260502110203 | 68 | 93 | 5.0 | 10.0 | 0.00 | 0.00 | 0.00 | 42 | 1022.3 |
| 20260502110201 | 68 | 96 | 5.0 | 10.0 | 0.00 | 0.00 | 0.00 | 42 | 1022.3 |
| 20260502110115 | 67 | 90 | 5.0 | 10.0 | 0.00 | 0.00 | 0.00 | 43 | 1022.5 |
| 20260502110103 | 68 | 97 | 5.0 | 10.0 | 0.00 | 0.00 | 0.00 | 41 | 1022.3 |
| 20260502110003 | 68 | 97 | 5.0 | 10.0 | 0.00 | 0.00 | 0.00 | 41 | 1022.3 |
| 20260502105915 | 67 | 89 | 5.0 | 10.0 | 0.00 | 0.00 | 0.00 | 44 | 1022.5 |
| 20260502105903 | 68 | 93 | 5.0 | 10.0 | 0.00 | 0.00 | 0.00 | 42 | 1022.4 |
| 20260502105804 | 68 | 91 | 5.0 | 10.0 | 0.00 | 0.00 | 0.00 | 43 | 1022.4 |
| 20260502105704 | 67 | 90 | 5.0 | 10.0 | 0.00 | 0.00 | 0.00 | 43 | 1022.5 |
| 20260502105614 | 67 | 88 | 6.0 | 10.0 | 0.00 | 0.00 | 0.00 | 44 | 1022.5 |
| 20260502105601 | 67 | 89 | 5.0 | 10.0 | 0.00 | 0.00 | 0.00 | 43 | 1022.4 |
| 20260502105503 | 67 | 89 | 5.0 | 10.0 | 0.00 | 0.00 | 0.00 | 44 | 1022.5 |
| 20260502105414 | 67 | 86 | 7.0 | 10.0 | 0.00 | 0.00 | 0.00 | 44 | 1022.5 |
| 20260502105403 | 67 | 89 | 6.0 | 10.0 | 0.00 | 0.00 | 0.00 | 44 | 1022.6 |
| 20260502105301 | 67 | 89 | 6.0 | 10.0 | 0.00 | 0.00 | 0.00 | 44 | 1022.6 |
| 20260502105214 | 67 | 87 | 7.0 | 10.0 | 0.00 | 0.00 | 0.00 | 44 | 1022.6 |
| 20260502105203 | 67 | 88 | 6.0 | 10.0 | 0.00 | 0.00 | 0.00 | 44 | 1022.5 |
| 20260502105103 | 67 | 85 | 6.0 | 10.0 | 0.00 | 0.00 | 0.00 | 44 | 1022.4 |
| 20260502105001 | 67 | 86 | 7.0 | 10.0 | 0.00 | 0.00 | 0.00 | 44 | 1022.5 |
| 20260502104903 | 67 | 86 | 7.0 | 10.0 | 0.00 | 0.00 | 0.00 | 44 | 1022.6 |
| 20260502104803 | 67 | 87 | 7.0 | 10.0 | 0.00 | 0.00 | 0.00 | 44 | 1022.6 |
| 20260502104702 | 66 | 86 | 7.0 | 10.0 | 0.00 | 0.00 | 0.00 | 44 | 1022.6 |
| 20260502104604 | 66 | 86 | 7.0 | 10.0 | 0.00 | 0.00 | 0.00 | 43 | 1022.7 |
| 20260502104513 | 67 | 88 | 5.0 | 10.0 | 0.00 | 0.00 | 0.00 | 44 | 1022.7 |
| 20260502104504 | 66 | 85 | 6.0 | 10.0 | 0.00 | 0.00 | 0.00 | 44 | 1022.7 |
| 20260502104402 | 66 | 83 | 6.0 | 10.0 | 0.00 | 0.00 | 0.00 | 44 | 1022.6 |
| 20260502104303 | 66 | 83 | 6.0 | 10.0 | 0.00 | 0.00 | 0.00 | 44 | 1022.6 |
| 20260502104204 | 66 | 86 | 6.0 | 10.0 | 0.00 | 0.00 | 0.00 | 44 | 1022.7 |
| 20260502104102 | 67 | 88 | 5.0 | 10.0 | 0.00 | 0.00 | 0.00 | 44 | 1022.7 |
| 20260502104004 | 66 | 112 | 2.0 | 3.0 | 0.00 | 0.00 | 0.00 | 45 | 1022.7 |
| 20260502103904 | 66 | 108 | 1.0 | 2.0 | 0.00 | 0.00 | 0.00 | 45 | 1022.8 |
| 20260502103803 | 66 | 125 | 1.0 | 2.0 | 0.00 | 0.00 | 0.00 | 45 | 1022.7 |
| 20260502103801 | 66 | 139 | 2.0 | 2.0 | 0.00 | 0.00 | 0.00 | 45 | 1022.7 |
| 20260502103703 | 66 | 139 | 2.0 | 2.0 | 0.00 | 0.00 | 0.00 | 45 | 1022.7 |
| 20260502102001 | 67 | 90 | 4.0 | 10.0 | 0.00 | 0.00 | 0.00 | 46 | 1023.0 |
| 20260502101903 | 67 | 87 | 4.0 | 10.0 | 0.00 | 0.00 | 0.00 | 46 | 1023.1 |
| 20260502101802 | 67 | 89 | 4.0 | 9.0 | 0.00 | 0.00 | 0.00 | 47 | 1023.2 |
| 20260502101800 | 67 | 85 | 3.0 | 9.0 | 0.00 | 0.00 | 0.00 | 47 | 1023.1 |
| 20260502101702 | 67 | 85 | 3.0 | 9.0 | 0.00 | 0.00 | 0.00 | 47 | 1023.1 |
| 20260502101611 | 67 | 90 | 3.0 | 9.0 | 0.00 | 0.00 | 0.00 | 46 | 1023.2 |
| 20260502101602 | 67 | 83 | 3.0 | 9.0 | 0.00 | 0.00 | 0.00 | 47 | 1023.1 |
| 20260502101501 | 67 | 81 | 3.0 | 9.0 | 0.00 | 0.00 | 0.00 | 47 | 1023.2 |
| 20260502101401 | 67 | 81 | 3.0 | 9.0 | 0.00 | 0.00 | 0.00 | 47 | 1023.2 |
| 20260502101302 | 67 | 83 | 3.0 | 9.0 | 0.00 | 0.00 | 0.00 | 47 | 1023.2 |
| 20260502101202 | 67 | 90 | 3.0 | 9.0 | 0.00 | 0.00 | 0.00 | 46 | 1023.2 |
| 20260502101159 | 67 | 90 | 3.0 | 9.0 | 0.00 | 0.00 | 0.00 | 46 | 1023.2 |
| 20260502101101 | 67 | 90 | 3.0 | 9.0 | 0.00 | 0.00 | 0.00 | 46 | 1023.2 |
| 20260502101011 | 67 | 90 | 3.0 | 8.0 | 0.00 | 0.00 | 0.00 | 46 | 1023.3 |
| 20260502101001 | 67 | 87 | 3.0 | 9.0 | 0.00 | 0.00 | 0.00 | 46 | 1023.1 |
| 20260502100900 | 67 | 89 | 3.0 | 8.0 | 0.00 | 0.00 | 0.00 | 46 | 1023.2 |
| 20260502100802 | 67 | 89 | 3.0 | 8.0 | 0.00 | 0.00 | 0.00 | 46 | 1023.2 |
| 20260502100710 | 66 | 91 | 4.0 | 10.0 | 0.00 | 0.00 | 0.00 | 47 | 1023.3 |
| 20260502100701 | 67 | 90 | 3.0 | 8.0 | 0.00 | 0.00 | 0.00 | 46 | 1023.3 |
| 20260502100600 | 67 | 90 | 3.0 | 8.0 | 0.00 | 0.00 | 0.00 | 46 | 1023.3 |
| 20260502100501 | 67 | 90 | 3.0 | 8.0 | 0.00 | 0.00 | 0.00 | 46 | 1023.3 |
| 20260502100402 | 67 | 90 | 4.0 | 8.0 | 0.00 | 0.00 | 0.00 | 46 | 1023.3 |
| 20260502100302 | 66 | 92 | 4.0 | 9.0 | 0.00 | 0.00 | 0.00 | 47 | 1023.4 |
| 20260502100259 | 66 | 91 | 4.0 | 10.0 | 0.00 | 0.00 | 0.00 | 47 | 1023.3 |
| 20260502100201 | 66 | 91 | 4.0 | 10.0 | 0.00 | 0.00 | 0.00 | 47 | 1023.3 |
| 20260502091501 | 64 | 97 | 3.0 | 6.0 | 0.00 | 0.00 | 0.00 | 52 | 1024.1 |
| 20260502091400 | 64 | 100 | 3.0 | 6.0 | 0.00 | 0.00 | 0.00 | 51 | 1024.1 |
| 20260502091300 | 64 | 101 | 2.0 | 6.0 | 0.00 | 0.00 | 0.00 | 52 | 1024.1 |
| 20260502091202 | 64 | 101 | 2.0 | 6.0 | 0.00 | 0.00 | 0.00 | 52 | 1024.1 |
| 20260502091200 | 64 | 99 | 3.0 | 6.0 | 0.00 | 0.00 | 0.00 | 50 | 1024.1 |
| 20260502091102 | 64 | 99 | 3.0 | 6.0 | 0.00 | 0.00 | 0.00 | 50 | 1024.1 |
| 20260502091002 | 64 | 95 | 3.0 | 6.0 | 0.00 | 0.00 | 0.00 | 51 | 1024.1 |
| 20260502090901 | 64 | 90 | 3.0 | 6.0 | 0.00 | 0.00 | 0.00 | 52 | 1024.1 |
| 20260502090801 | 64 | 90 | 2.0 | 6.0 | 0.00 | 0.00 | 0.00 | 52 | 1024.2 |
| 20260502090701 | 64 | 89 | 2.0 | 6.0 | 0.00 | 0.00 | 0.00 | 52 | 1024.2 |
| 20260502090601 | 64 | 89 | 2.0 | 6.0 | 0.00 | 0.00 | 0.00 | 52 | 1024.2 |
| 20260502090501 | 64 | 88 | 2.0 | 4.0 | 0.00 | 0.00 | 0.00 | 53 | 1024.2 |
| 20260502090401 | 63 | 86 | 2.0 | 4.0 | 0.00 | 0.00 | 0.00 | 54 | 1024.1 |
| 20260502090301 | 63 | 82 | 2.0 | 4.0 | 0.00 | 0.00 | 0.00 | 55 | 1024.2 |
| 20260502090205 | 63 | 109 | 1.0 | 4.0 | 0.00 | 0.00 | 0.00 | 56 | 1024.2 |
| 20260502090202 | 64 | 78 | 1.0 | 4.0 | 0.00 | 0.00 | 0.00 | 56 | 1024.3 |
| 20260502090110 | 64 | 123 | 1.0 | 4.0 | 0.00 | 0.00 | 0.00 | 57 | 1024.2 |
| 20260502071501 | 56 | 348 | 2.0 | 4.0 | 0.00 | 0.00 | 0.00 | 69 | 1025.1 |
| 20260502071400 | 56 | 345 | 2.0 | 3.0 | 0.00 | 0.00 | 0.00 | 69 | 1025.2 |
| 20260502071300 | 56 | 347 | 2.0 | 3.0 | 0.00 | 0.00 | 0.00 | 69 | 1025.3 |
| 20260502071202 | 56 | 347 | 2.0 | 3.0 | 0.00 | 0.00 | 0.00 | 69 | 1025.3 |
| 20260502071200 | 56 | 347 | 2.0 | 3.0 | 0.00 | 0.00 | 0.00 | 69 | 1025.2 |
| 20260502071101 | 56 | 347 | 2.0 | 3.0 | 0.00 | 0.00 | 0.00 | 69 | 1025.2 |
| 20260502071001 | 56 | 346 | 2.0 | 4.0 | 0.00 | 0.00 | 0.00 | 69 | 1025.2 |
| 20260502070901 | 56 | 347 | 2.0 | 4.0 | 0.00 | 0.00 | 0.00 | 70 | 1025.3 |
| 20260502070800 | 56 | 349 | 3.0 | 4.0 | 0.00 | 0.00 | 0.00 | 70 | 1025.2 |
| 20260502070702 | 56 | 349 | 3.0 | 4.0 | 0.00 | 0.00 | 0.00 | 70 | 1025.2 |
| 20260502070602 | 56 | 349 | 3.0 | 6.0 | 0.00 | 0.00 | 0.00 | 70 | 1025.3 |
| 20260502070600 | 56 | 349 | 3.0 | 6.0 | 0.00 | 0.00 | 0.00 | 70 | 1025.3 |
| 20260502070501 | 56 | 349 | 3.0 | 6.0 | 0.00 | 0.00 | 0.00 | 70 | 1025.3 |
| 20260502070401 | 56 | 349 | 3.0 | 6.0 | 0.00 | 0.00 | 0.00 | 70 | 1025.3 |
| 20260502070301 | 56 | 351 | 3.0 | 6.0 | 0.00 | 0.00 | 0.00 | 70 | 1025.2 |
| 20260502070200 | 56 | 351 | 3.0 | 6.0 | 0.00 | 0.00 | 0.00 | 71 | 1025.3 |
| 20260502070100 | 56 | 353 | 3.0 | 6.0 | 0.00 | 0.00 | 0.00 | 71 | 1025.1 |
| 20260502070000 | 56 | 354 | 3.0 | 6.0 | 0.00 | 0.00 | 0.00 | 71 | 1025.2 |
| 20260502065901 | 56 | 354 | 3.0 | 6.0 | 0.00 | 0.00 | 0.00 | 71 | 1025.2 |
| 20260502065801 | 56 | 355 | 3.0 | 6.0 | 0.00 | 0.00 | 0.00 | 70 | 1025.2 |
| 20260502065702 | 56 | 354 | 3.0 | 6.0 | 0.00 | 0.00 | 0.00 | 70 | 1025.3 |
| 20260502065659 | 56 | 355 | 3.0 | 6.0 | 0.00 | 0.00 | 0.00 | 70 | 1025.3 |
| 20260502065601 | 56 | 355 | 3.0 | 6.0 | 0.00 | 0.00 | 0.00 | 70 | 1025.3 |
| 20260502065501 | 56 | 358 | 3.0 | 6.0 | 0.00 | 0.00 | 0.00 | 71 | 1025.4 |
| 20260502065413 | 55 | 347 | 3.0 | 6.0 | 0.00 | 0.00 | 0.00 | 71 | 1025.4 |
| 20260502065401 | 55 | 358 | 3.0 | 6.0 | 0.00 | 0.00 | 0.00 | 71 | 1025.4 |
| 20260502065300 | 55 | 356 | 3.0 | 6.0 | 0.00 | 0.00 | 0.00 | 72 | 1025.4 |
| 20260502065200 | 55 | 355 | 3.0 | 6.0 | 0.00 | 0.00 | 0.00 | 71 | 1025.4 |
| 20260502065100 | 55 | 350 | 3.0 | 6.0 | 0.00 | 0.00 | 0.00 | 71 | 1025.4 |
| 20260502065002 | 55 | 347 | 3.0 | 6.0 | 0.00 | 0.00 | 0.00 | 71 | 1025.4 |
| 20260502064900 | 55 | 344 | 3.0 | 6.0 | 0.00 | 0.00 | 0.00 | 72 | 1025.5 |
| 20260502064800 | 55 | 343 | 3.0 | 6.0 | 0.00 | 0.00 | 0.00 | 71 | 1025.5 |
| 20260502064700 | 55 | 339 | 2.0 | 6.0 | 0.00 | 0.00 | 0.00 | 72 | 1025.6 |
| 20260502064600 | 55 | 337 | 3.0 | 6.0 | 0.00 | 0.00 | 0.00 | 72 | 1025.4 |
| 20260502064513 | 54 | 336 | 3.0 | 6.0 | 0.00 | 0.00 | 0.00 | 74 | 1025.5 |
| 20260502064500 | 55 | 334 | 2.0 | 4.0 | 0.00 | 0.00 | 0.00 | 73 | 1025.6 |
| 20260502064402 | 55 | 334 | 2.0 | 4.0 | 0.00 | 0.00 | 0.00 | 73 | 1025.6 |
| 20260502064313 | 54 | 340 | 3.0 | 6.0 | 0.00 | 0.00 | 0.00 | 74 | 1025.4 |
| 20260502064302 | 55 | 335 | 3.0 | 6.0 | 0.00 | 0.00 | 0.00 | 73 | 1025.5 |
| 20260502064201 | 54 | 335 | 3.0 | 6.0 | 0.00 | 0.00 | 0.00 | 73 | 1025.6 |
| 20260502064101 | 54 | 336 | 3.0 | 6.0 | 0.00 | 0.00 | 0.00 | 74 | 1025.5 |
| 20260502064012 | 54 | 340 | 3.0 | 6.0 | 0.00 | 0.00 | 0.00 | 73 | 1025.5 |
| 20260502064001 | 54 | 340 | 3.0 | 6.0 | 0.00 | 0.00 | 0.00 | 74 | 1025.6 |
| 20260502063912 | 54 | 341 | 3.0 | 6.0 | 0.00 | 0.00 | 0.00 | 73 | 1025.5 |
| 20260502063901 | 54 | 340 | 3.0 | 6.0 | 0.00 | 0.00 | 0.00 | 74 | 1025.4 |
| 20260502063800 | 54 | 341 | 3.0 | 6.0 | 0.00 | 0.00 | 0.00 | 73 | 1025.6 |
| 20260502063702 | 54 | 341 | 3.0 | 6.0 | 0.00 | 0.00 | 0.00 | 73 | 1025.6 |
| 20260502063601 | 54 | 340 | 3.0 | 6.0 | 0.00 | 0.00 | 0.00 | 73 | 1025.5 |
| 20260502063501 | 54 | 341 | 3.0 | 6.0 | 0.00 | 0.00 | 0.00 | 73 | 1025.5 |
| 20260502063412 | 54 | 335 | 3.0 | 4.0 | 0.00 | 0.00 | 0.00 | 74 | 1025.6 |
| 20260502063401 | 54 | 340 | 3.0 | 6.0 | 0.00 | 0.00 | 0.00 | 73 | 1025.5 |
| 20260502063301 | 54 | 340 | 3.0 | 4.0 | 0.00 | 0.00 | 0.00 | 73 | 1025.5 |
| 20260502063201 | 54 | 335 | 3.0 | 4.0 | 0.00 | 0.00 | 0.00 | 74 | 1025.5 |
| 20260502063100 | 54 | 335 | 3.0 | 4.0 | 0.00 | 0.00 | 0.00 | 74 | 1025.5 |
| 20260502063000 | 54 | 335 | 3.0 | 4.0 | 0.00 | 0.00 | 0.00 | 74 | 1025.6 |
| 20260502062902 | 54 | 335 | 3.0 | 4.0 | 0.00 | 0.00 | 0.00 | 74 | 1025.6 |
| 20260502062811 | 53 | 335 | 3.0 | 4.0 | 0.00 | 0.00 | 0.00 | 75 | 1025.6 |
| 20260502062802 | 54 | 335 | 2.0 | 4.0 | 0.00 | 0.00 | 0.00 | 74 | 1025.5 |
| 20260502062701 | 54 | 333 | 2.0 | 4.0 | 0.00 | 0.00 | 0.00 | 75 | 1025.6 |
| 20260502062601 | 54 | 334 | 2.0 | 4.0 | 0.00 | 0.00 | 0.00 | 75 | 1025.6 |
| 20260502062501 | 53 | 334 | 2.0 | 4.0 | 0.00 | 0.00 | 0.00 | 76 | 1025.6 |
| 20260502062402 | 53 | 335 | 3.0 | 4.0 | 0.00 | 0.00 | 0.00 | 75 | 1025.5 |
| 20260502062400 | 53 | 335 | 3.0 | 4.0 | 0.00 | 0.00 | 0.00 | 75 | 1025.6 |
| 20260502062305 | 53 | 335 | 3.0 | 4.0 | 0.00 | 0.00 | 0.00 | 75 | 1025.6 |
| 20260502062201 | 53 | 336 | 3.0 | 4.0 | 0.00 | 0.00 | 0.00 | 75 | 1025.5 |
| 20260502062101 | 53 | 336 | 3.0 | 4.0 | 0.00 | 0.00 | 0.00 | 75 | 1025.6 |
| 20260502062001 | 53 | 333 | 3.0 | 4.0 | 0.00 | 0.00 | 0.00 | 75 | 1025.5 |
| 20260502061901 | 53 | 333 | 3.0 | 4.0 | 0.00 | 0.00 | 0.00 | 75 | 1025.5 |
| 20260502061801 | 53 | 335 | 3.0 | 4.0 | 0.00 | 0.00 | 0.00 | 75 | 1025.5 |
| 20260502061702 | 53 | 335 | 3.0 | 4.0 | 0.00 | 0.00 | 0.00 | 76 | 1025.6 |
| 20260502061602 | 53 | 333 | 3.0 | 4.0 | 0.00 | 0.00 | 0.00 | 76 | 1025.5 |
| 20260502061501 | 53 | 333 | 3.0 | 4.0 | 0.00 | 0.00 | 0.00 | 76 | 1025.5 |
| 20260502061400 | 53 | 334 | 3.0 | 4.0 | 0.00 | 0.00 | 0.00 | 76 | 1025.4 |
| 20260502061300 | 52 | 334 | 3.0 | 4.0 | 0.00 | 0.00 | 0.00 | 76 | 1025.5 |
| 20260502061202 | 52 | 334 | 3.0 | 4.0 | 0.00 | 0.00 | 0.00 | 76 | 1025.5 |
| 20260502061200 | 53 | 336 | 3.0 | 4.0 | 0.00 | 0.00 | 0.00 | 76 | 1025.6 |
| 20260502061102 | 53 | 336 | 3.0 | 4.0 | 0.00 | 0.00 | 0.00 | 76 | 1025.6 |
| 20260502061002 | 52 | 337 | 2.0 | 4.0 | 0.00 | 0.00 | 0.00 | 76 | 1025.5 |
| 20260502060902 | 52 | 337 | 2.0 | 4.0 | 0.00 | 0.00 | 0.00 | 76 | 1025.5 |
| 20260502060859 | 53 | 334 | 2.0 | 4.0 | 0.00 | 0.00 | 0.00 | 76 | 1025.6 |
| 20260502060800 | 53 | 334 | 2.0 | 4.0 | 0.00 | 0.00 | 0.00 | 76 | 1025.6 |
| 20260502060709 | 53 | 336 | 2.0 | 3.0 | 0.00 | 0.00 | 0.00 | 76 | 1025.6 |
| 20260502060701 | 53 | 334 | 2.0 | 4.0 | 0.00 | 0.00 | 0.00 | 76 | 1025.6 |
| 20260502060601 | 53 | 337 | 2.0 | 4.0 | 0.00 | 0.00 | 0.00 | 77 | 1025.5 |
| 20260502060501 | 53 | 338 | 2.0 | 3.0 | 0.00 | 0.00 | 0.00 | 76 | 1025.6 |
| 20260502060401 | 53 | 336 | 2.0 | 3.0 | 0.00 | 0.00 | 0.00 | 76 | 1025.6 |
| 20260502060301 | 53 | 336 | 2.0 | 3.0 | 0.00 | 0.00 | 0.00 | 76 | 1025.6 |
| 20260502060200 | 53 | 336 | 2.0 | 3.0 | 0.00 | 0.00 | 0.00 | 76 | 1025.6 |
| 20260502060101 | 53 | 336 | 2.0 | 3.0 | 0.00 | 0.00 | 0.00 | 76 | 1025.6 |
| 20260502060001 | 53 | 339 | 2.0 | 3.0 | 0.00 | 0.00 | 0.00 | 76 | 1025.5 |
| 20260502055914 | 52 | 344 | 2.0 | 4.0 | 0.00 | 0.00 | 0.00 | 77 | 1025.6 |
| 20260502055901 | 53 | 339 | 2.0 | 3.0 | 0.00 | 0.00 | 0.00 | 76 | 1025.5 |
| 20260502055814 | 52 | 344 | 2.0 | 4.0 | 0.00 | 0.00 | 0.00 | 77 | 1025.6 |
| 20260502055801 | 53 | 341 | 2.0 | 3.0 | 0.00 | 0.00 | 0.00 | 77 | 1025.6 |
| 20260502055700 | 53 | 345 | 2.0 | 4.0 | 0.00 | 0.00 | 0.00 | 78 | 1025.7 |
| 20260502055602 | 53 | 345 | 2.0 | 4.0 | 0.00 | 0.00 | 0.00 | 78 | 1025.7 |
| 20260502055502 | 52 | 344 | 2.0 | 4.0 | 0.00 | 0.00 | 0.00 | 77 | 1025.6 |
| 20260502055402 | 52 | 344 | 2.0 | 4.0 | 0.00 | 0.00 | 0.00 | 77 | 1025.6 |
| 20260502055400 | 52 | 343 | 2.0 | 4.0 | 0.00 | 0.00 | 0.00 | 77 | 1025.7 |
| 20260502055313 | 52 | 341 | 2.0 | 4.0 | 0.00 | 0.00 | 0.00 | 77 | 1025.7 |
| 20260502055301 | 52 | 343 | 2.0 | 4.0 | 0.00 | 0.00 | 0.00 | 77 | 1025.7 |
| 20260502055213 | 52 | 340 | 2.0 | 4.0 | 0.00 | 0.00 | 0.00 | 77 | 1025.7 |
| 20260502055201 | 52 | 343 | 2.0 | 4.0 | 0.00 | 0.00 | 0.00 | 77 | 1025.7 |
| 20260502055101 | 52 | 342 | 2.0 | 4.0 | 0.00 | 0.00 | 0.00 | 77 | 1025.7 |
| 20260502055000 | 52 | 341 | 2.0 | 4.0 | 0.00 | 0.00 | 0.00 | 77 | 1025.7 |
| 20260502054902 | 52 | 341 | 2.0 | 4.0 | 0.00 | 0.00 | 0.00 | 77 | 1025.7 |
| 20260502054801 | 52 | 340 | 2.0 | 4.0 | 0.00 | 0.00 | 0.00 | 77 | 1025.7 |
| 20260502054713 | 52 | 334 | 2.0 | 3.0 | 0.00 | 0.00 | 0.00 | 77 | 1025.7 |
| 20260502054701 | 52 | 334 | 2.0 | 3.0 | 0.00 | 0.00 | 0.00 | 77 | 1025.8 |
| 20260502054613 | 52 | 333 | 2.0 | 3.0 | 0.00 | 0.00 | 0.00 | 77 | 1025.7 |
| 20260502054600 | 52 | 333 | 2.0 | 3.0 | 0.00 | 0.00 | 0.00 | 77 | 1025.7 |
| 20260502054513 | 52 | 334 | 2.0 | 3.0 | 0.00 | 0.00 | 0.00 | 77 | 1025.6 |
| 20260502054500 | 52 | 334 | 2.0 | 3.0 | 0.00 | 0.00 | 0.00 | 77 | 1025.7 |
| 20260502054412 | 52 | 334 | 1.0 | 3.0 | 0.00 | 0.00 | 0.00 | 77 | 1025.6 |
| 20260502054402 | 52 | 334 | 2.0 | 3.0 | 0.00 | 0.00 | 0.00 | 77 | 1025.7 |
| 20260502054302 | 52 | 334 | 2.0 | 3.0 | 0.00 | 0.00 | 0.00 | 77 | 1025.7 |
| 20260502054201 | 52 | 333 | 2.0 | 3.0 | 0.00 | 0.00 | 0.00 | 77 | 1025.7 |
| 20260502054101 | 52 | 334 | 2.0 | 3.0 | 0.00 | 0.00 | 0.00 | 77 | 1025.6 |
| 20260502054012 | 52 | 333 | 1.0 | 3.0 | 0.00 | 0.00 | 0.00 | 77 | 1025.7 |
| 20260502054001 | 52 | 334 | 1.0 | 3.0 | 0.00 | 0.00 | 0.00 | 77 | 1025.6 |
| 20260502053900 | 52 | 334 | 1.0 | 3.0 | 0.00 | 0.00 | 0.00 | 77 | 1025.6 |
| 20260502053802 | 52 | 334 | 1.0 | 3.0 | 0.00 | 0.00 | 0.00 | 77 | 1025.6 |
| 20260502053700 | 52 | 334 | 1.0 | 3.0 | 0.00 | 0.00 | 0.00 | 77 | 1025.7 |
| 20260502053600 | 52 | 333 | 1.0 | 3.0 | 0.00 | 0.00 | 0.00 | 77 | 1025.7 |
| 20260502053502 | 52 | 333 | 1.0 | 3.0 | 0.00 | 0.00 | 0.00 | 77 | 1025.7 |
| 20260502053402 | 52 | 331 | 1.0 | 3.0 | 0.00 | 0.00 | 0.00 | 77 | 1025.7 |
| 20260502053302 | 52 | 331 | 1.0 | 3.0 | 0.00 | 0.00 | 0.00 | 77 | 1025.7 |
| 20260502053300 | 52 | 331 | 1.0 | 3.0 | 0.00 | 0.00 | 0.00 | 77 | 1025.7 |
| 20260502053201 | 52 | 331 | 1.0 | 3.0 | 0.00 | 0.00 | 0.00 | 77 | 1025.7 |
| 20260502053101 | 52 | 331 | 1.0 | 3.0 | 0.00 | 0.00 | 0.00 | 77 | 1025.7 |
| 20260502053001 | 52 | 328 | 1.0 | 3.0 | 0.00 | 0.00 | 0.00 | 78 | 1025.7 |
| 20260502052901 | 52 | 328 | 1.0 | 3.0 | 0.00 | 0.00 | 0.00 | 78 | 1025.7 |
| 20260502052801 | 52 | 337 | 1.0 | 4.0 | 0.00 | 0.00 | 0.00 | 77 | 1025.7 |
| 20260502052701 | 52 | 337 | 1.0 | 4.0 | 0.00 | 0.00 | 0.00 | 77 | 1025.7 |
| 20260502052611 | 52 | 335 | 2.0 | 4.0 | 0.00 | 0.00 | 0.00 | 79 | 1025.6 |
| 20260502052600 | 52 | 336 | 1.0 | 4.0 | 0.00 | 0.00 | 0.00 | 78 | 1025.7 |
| 20260502052500 | 52 | 336 | 2.0 | 4.0 | 0.00 | 0.00 | 0.00 | 78 | 1025.7 |
| 20260502052401 | 52 | 336 | 2.0 | 4.0 | 0.00 | 0.00 | 0.00 | 78 | 1025.7 |
| 20260502052301 | 52 | 335 | 2.0 | 4.0 | 0.00 | 0.00 | 0.00 | 78 | 1025.7 |
| 20260502052211 | 51 | 323 | 2.0 | 4.0 | 0.00 | 0.00 | 0.00 | 78 | 1025.6 |
| 20260502052200 | 52 | 335 | 2.0 | 4.0 | 0.00 | 0.00 | 0.00 | 79 | 1025.6 |
| 20260502052100 | 51 | 333 | 2.0 | 4.0 | 0.00 | 0.00 | 0.00 | 78 | 1025.6 |
| 20260502052002 | 51 | 331 | 2.0 | 4.0 | 0.00 | 0.00 | 0.00 | 78 | 1025.6 |
| 20260502051902 | 51 | 331 | 2.0 | 4.0 | 0.00 | 0.00 | 0.00 | 78 | 1025.6 |
| 20260502051802 | 51 | 329 | 2.0 | 4.0 | 0.00 | 0.00 | 0.00 | 78 | 1025.6 |
| 20260502051759 | 51 | 323 | 2.0 | 4.0 | 0.00 | 0.00 | 0.00 | 78 | 1025.6 |
| 20260502051700 | 51 | 321 | 2.0 | 4.0 | 0.00 | 0.00 | 0.00 | 77 | 1025.6 |
| 20260502051600 | 51 | 321 | 2.0 | 4.0 | 0.00 | 0.00 | 0.00 | 77 | 1025.6 |
| 20260502051500 | 51 | 319 | 2.0 | 4.0 | 0.00 | 0.00 | 0.00 | 77 | 1025.7 |
| 20260502051402 | 51 | 319 | 2.0 | 4.0 | 0.00 | 0.00 | 0.00 | 77 | 1025.7 |
| 20260502051302 | 51 | 319 | 2.0 | 4.0 | 0.00 | 0.00 | 0.00 | 78 | 1025.6 |
| 20260502051201 | 51 | 321 | 2.0 | 4.0 | 0.00 | 0.00 | 0.00 | 77 | 1025.7 |
| 20260502051100 | 51 | 322 | 2.0 | 4.0 | 0.00 | 0.00 | 0.00 | 78 | 1025.7 |
| 20260502051000 | 51 | 324 | 2.0 | 4.0 | 0.00 | 0.00 | 0.00 | 78 | 1025.6 |
| 20260502050900 | 51 | 323 | 2.0 | 4.0 | 0.00 | 0.00 | 0.00 | 78 | 1025.6 |
| 20260502050802 | 51 | 323 | 2.0 | 4.0 | 0.00 | 0.00 | 0.00 | 78 | 1025.6 |
| 20260502050701 | 51 | 324 | 2.0 | 4.0 | 0.00 | 0.00 | 0.00 | 77 | 1025.6 |
| 20260502050601 | 51 | 325 | 2.0 | 4.0 | 0.00 | 0.00 | 0.00 | 77 | 1025.6 |
| 20260502050501 | 52 | 326 | 2.0 | 4.0 | 0.00 | 0.00 | 0.00 | 76 | 1025.5 |
| 20260502050401 | 52 | 324 | 2.0 | 4.0 | 0.00 | 0.00 | 0.00 | 77 | 1025.6 |
| 20260502050301 | 52 | 320 | 2.0 | 4.0 | 0.00 | 0.00 | 0.00 | 77 | 1025.5 |
| 20260502050204 | 52 | 315 | 2.0 | 4.0 | 0.00 | 0.00 | 0.00 | 77 | 1025.6 |
| 20260502050200 | 52 | 318 | 2.0 | 4.0 | 0.00 | 0.00 | 0.00 | 77 | 1025.6 |
| 20260502050109 | 52 | 312 | 1.0 | 4.0 | 0.00 | 0.00 | 0.00 | 77 | 1025.6 |
| 20260502050100 | 52 | 317 | 2.0 | 4.0 | 0.00 | 0.00 | 0.00 | 77 | 1025.6 |
| 20260502050000 | 52 | 314 | 2.0 | 4.0 | 0.00 | 0.00 | 0.00 | 77 | 1025.6 |
| 20260502045909 | 52 | 301 | 1.0 | 3.0 | 0.00 | 0.00 | 0.00 | 77 | 1025.6 |
| 20260502045902 | 52 | 314 | 2.0 | 4.0 | 0.00 | 0.00 | 0.00 | 77 | 1025.6 |
| 20260502045802 | 52 | 315 | 2.0 | 4.0 | 0.00 | 0.00 | 0.00 | 77 | 1025.6 |
| 20260502045758 | 52 | 299 | 1.0 | 3.0 | 0.00 | 0.00 | 0.00 | 77 | 1025.4 |
| 20260502045708 | 52 | 299 | 1.0 | 3.0 | 0.00 | 0.00 | 0.00 | 77 | 1025.4 |
| 20260502045701 | 52 | 312 | 1.0 | 4.0 | 0.00 | 0.00 | 0.00 | 77 | 1025.6 |
| 20260502045609 | 52 | 296 | 1.0 | 3.0 | 0.00 | 0.00 | 0.00 | 77 | 1025.4 |
| 20260502045601 | 52 | 312 | 1.0 | 4.0 | 0.00 | 0.00 | 0.00 | 77 | 1025.6 |
| 20260502045503 | 52 | 286 | 0.0 | 2.0 | 0.00 | 0.00 | 0.00 | 77 | 1025.5 |
| 20260502045501 | 52 | 301 | 1.0 | 3.0 | 0.00 | 0.00 | 0.00 | 77 | 1025.6 |
| 20260502045408 | 52 | 272 | 0.0 | 2.0 | 0.00 | 0.00 | 0.00 | 77 | 1025.5 |
| 20260502045400 | 52 | 299 | 1.0 | 3.0 | 0.00 | 0.00 | 0.00 | 77 | 1025.4 |
| 20260502045305 | 52 | 299 | 1.0 | 3.0 | 0.00 | 0.00 | 0.00 | 77 | 1025.4 |
| 20260502045253 | 52 | 272 | 0.0 | 2.0 | 0.00 | 0.00 | 0.00 | 77 | 1025.5 |
| 20260502045213 | 52 | 275 | 0.0 | 2.0 | 0.00 | 0.00 | 0.00 | 77 | 1025.6 |
| 20260502045201 | 52 | 296 | 1.0 | 3.0 | 0.00 | 0.00 | 0.00 | 77 | 1025.4 |
| 20260502045108 | 52 | 273 | 0.0 | 2.0 | 0.00 | 0.00 | 0.00 | 78 | 1025.3 |
| 20260502045100 | 52 | 286 | 0.0 | 2.0 | 0.00 | 0.00 | 0.00 | 77 | 1025.5 |
| 20260502045002 | 52 | 272 | 0.0 | 2.0 | 0.00 | 0.00 | 0.00 | 77 | 1025.5 |
| 20260502044902 | 52 | 272 | 0.0 | 2.0 | 0.00 | 0.00 | 0.00 | 77 | 1025.5 |
| 20260502044813 | 51 | 270 | 1.0 | 3.0 | 0.00 | 0.00 | 0.00 | 79 | 1025.4 |
| 20260502044801 | 52 | 275 | 0.0 | 2.0 | 0.00 | 0.00 | 0.00 | 77 | 1025.6 |
| 20260502044759 | 52 | 273 | 0.0 | 2.0 | 0.00 | 0.00 | 0.00 | 78 | 1025.3 |
| 20260502044702 | 51 | 270 | 1.0 | 3.0 | 0.00 | 0.00 | 0.00 | 79 | 1025.4 |
| 20260502044612 | 51 | 270 | 1.0 | 3.0 | 0.00 | 0.00 | 0.00 | 78 | 1025.4 |
| 20260502044601 | 52 | 271 | 0.0 | 2.0 | 0.00 | 0.00 | 0.00 | 78 | 1025.4 |
| 20260502044501 | 51 | 270 | 1.0 | 3.0 | 0.00 | 0.00 | 0.00 | 78 | 1025.4 |
| 20260502044447 | 51 | 268 | 1.0 | 3.0 | 0.00 | 0.00 | 0.00 | 78 | 1025.3 |
| 20260502044412 | 51 | 262 | 1.0 | 3.0 | 0.00 | 0.00 | 0.00 | 79 | 1025.3 |
| 20260502044402 | 51 | 270 | 1.0 | 3.0 | 0.00 | 0.00 | 0.00 | 79 | 1025.4 |
| 20260502044302 | 51 | 270 | 1.0 | 3.0 | 0.00 | 0.00 | 0.00 | 79 | 1025.4 |
| 20260502044257 | 51 | 262 | 1.0 | 3.0 | 0.00 | 0.00 | 0.00 | 79 | 1025.3 |
| 20260502044202 | 51 | 258 | 2.0 | 3.0 | 0.00 | 0.00 | 0.00 | 78 | 1025.3 |
| 20260502044112 | 51 | 257 | 2.0 | 3.0 | 0.00 | 0.00 | 0.00 | 78 | 1025.2 |
| 20260502044101 | 51 | 268 | 1.0 | 3.0 | 0.00 | 0.00 | 0.00 | 78 | 1025.3 |
| 20260502044001 | 51 | 262 | 1.0 | 3.0 | 0.00 | 0.00 | 0.00 | 79 | 1025.3 |
| 20260502043952 | 51 | 256 | 2.0 | 3.0 | 0.00 | 0.00 | 0.00 | 79 | 1025.3 |
| 20260502043902 | 51 | 256 | 2.0 | 3.0 | 0.00 | 0.00 | 0.00 | 79 | 1025.3 |
| 20260502043900 | 51 | 262 | 1.0 | 3.0 | 0.00 | 0.00 | 0.00 | 79 | 1025.3 |
| 20260502043800 | 51 | 258 | 2.0 | 3.0 | 0.00 | 0.00 | 0.00 | 78 | 1025.3 |
| 20260502043742 | 51 | 257 | 2.0 | 3.0 | 0.00 | 0.00 | 0.00 | 78 | 1025.2 |
| 20260502043702 | 51 | 257 | 2.0 | 3.0 | 0.00 | 0.00 | 0.00 | 78 | 1025.3 |
| 20260502043611 | 51 | 257 | 2.0 | 3.0 | 0.00 | 0.00 | 0.00 | 78 | 1025.3 |
| 20260502043601 | 51 | 256 | 2.0 | 3.0 | 0.00 | 0.00 | 0.00 | 79 | 1025.3 |
| 20260502043506 | 51 | 258 | 2.0 | 3.0 | 0.00 | 0.00 | 0.00 | 78 | 1025.2 |
| 20260502043501 | 51 | 256 | 2.0 | 3.0 | 0.00 | 0.00 | 0.00 | 79 | 1025.3 |
| 20260502043411 | 51 | 267 | 2.0 | 3.0 | 0.00 | 0.00 | 0.00 | 77 | 1025.1 |
| 20260502043401 | 51 | 257 | 2.0 | 3.0 | 0.00 | 0.00 | 0.00 | 78 | 1025.2 |
| 20260502043300 | 51 | 257 | 2.0 | 3.0 | 0.00 | 0.00 | 0.00 | 78 | 1025.3 |
| 20260502043211 | 51 | 273 | 1.0 | 3.0 | 0.00 | 0.00 | 0.00 | 77 | 1025.1 |
| 20260502043202 | 51 | 257 | 2.0 | 3.0 | 0.00 | 0.00 | 0.00 | 78 | 1025.3 |
| 20260502043106 | 51 | 276 | 1.0 | 3.0 | 0.00 | 0.00 | 0.00 | 77 | 1025.2 |
| 20260502043102 | 51 | 258 | 2.0 | 3.0 | 0.00 | 0.00 | 0.00 | 78 | 1025.2 |
| 20260502043011 | 51 | 276 | 1.0 | 3.0 | 0.00 | 0.00 | 0.00 | 77 | 1025.2 |
| 20260502043000 | 51 | 267 | 2.0 | 3.0 | 0.00 | 0.00 | 0.00 | 77 | 1025.1 |
| 20260502042900 | 51 | 270 | 1.0 | 3.0 | 0.00 | 0.00 | 0.00 | 77 | 1025.3 |
| 20260502042856 | 51 | 280 | 1.0 | 2.0 | 0.00 | 0.00 | 0.00 | 77 | 1025.1 |
| 20260502042800 | 51 | 273 | 1.0 | 3.0 | 0.00 | 0.00 | 0.00 | 77 | 1025.1 |
| 20260502042702 | 51 | 273 | 1.0 | 3.0 | 0.00 | 0.00 | 0.00 | 77 | 1025.1 |
| 20260502042659 | 51 | 276 | 1.0 | 3.0 | 0.00 | 0.00 | 0.00 | 77 | 1025.2 |
| 20260502042601 | 51 | 276 | 1.0 | 3.0 | 0.00 | 0.00 | 0.00 | 77 | 1025.2 |
| 20260502042501 | 51 | 280 | 1.0 | 2.0 | 0.00 | 0.00 | 0.00 | 77 | 1025.1 |
| 20260502042400 | 51 | 290 | 1.0 | 2.0 | 0.00 | 0.00 | 0.00 | 77 | 1025.2 |
| 20260502042306 | 51 | 299 | 1.0 | 3.0 | 0.00 | 0.00 | 0.00 | 78 | 1025.2 |
| 20260502042210 | 51 | 300 | 2.0 | 4.0 | 0.00 | 0.00 | 0.00 | 78 | 1025.1 |
| 20260502042201 | 51 | 295 | 1.0 | 2.0 | 0.00 | 0.00 | 0.00 | 77 | 1025.1 |
| 20260502042105 | 51 | 300 | 2.0 | 4.0 | 0.00 | 0.00 | 0.00 | 78 | 1025.1 |
| 20260502042101 | 51 | 298 | 1.0 | 2.0 | 0.00 | 0.00 | 0.00 | 77 | 1025.1 |
| 20260502042010 | 51 | 303 | 2.0 | 4.0 | 0.00 | 0.00 | 0.00 | 78 | 1025.2 |
| 20260502042001 | 51 | 299 | 1.0 | 3.0 | 0.00 | 0.00 | 0.00 | 78 | 1025.2 |
| 20260502041910 | 51 | 307 | 2.0 | 4.0 | 0.00 | 0.00 | 0.00 | 78 | 1025.0 |
| 20260502041905 | 51 | 308 | 2.0 | 4.0 | 0.00 | 0.00 | 0.00 | 78 | 1025.2 |
| 20260502041901 | 51 | 299 | 1.0 | 3.0 | 0.00 | 0.00 | 0.00 | 78 | 1025.2 |
| 20260502041810 | 51 | 308 | 2.0 | 4.0 | 0.00 | 0.00 | 0.00 | 78 | 1025.2 |
| 20260502041801 | 51 | 300 | 2.0 | 4.0 | 0.00 | 0.00 | 0.00 | 78 | 1025.2 |
| 20260502041710 | 51 | 308 | 2.0 | 4.0 | 0.00 | 0.00 | 0.00 | 78 | 1025.1 |
| 20260502041702 | 51 | 300 | 2.0 | 4.0 | 0.00 | 0.00 | 0.00 | 78 | 1025.1 |
| 20260502041610 | 51 | 308 | 2.0 | 4.0 | 0.00 | 0.00 | 0.00 | 78 | 1025.1 |
| 20260502041605 | 51 | 309 | 2.0 | 4.0 | 0.00 | 0.00 | 0.00 | 78 | 1025.1 |
| 20260502041602 | 51 | 303 | 2.0 | 4.0 | 0.00 | 0.00 | 0.00 | 78 | 1025.2 |
| 20260502041510 | 51 | 309 | 2.0 | 4.0 | 0.00 | 0.00 | 0.00 | 78 | 1025.1 |
| 20260502041502 | 51 | 307 | 2.0 | 4.0 | 0.00 | 0.00 | 0.00 | 78 | 1025.0 |
| 20260502041500 | 51 | 308 | 2.0 | 4.0 | 0.00 | 0.00 | 0.00 | 78 | 1025.2 |
| 20260502041401 | 51 | 308 | 2.0 | 4.0 | 0.00 | 0.00 | 0.00 | 78 | 1025.2 |
| 20260502041349 | 51 | 313 | 2.0 | 4.0 | 0.00 | 0.00 | 0.00 | 79 | 1025.2 |
| 20260502041309 | 51 | 313 | 2.0 | 4.0 | 0.00 | 0.00 | 0.00 | 79 | 1025.2 |
| 20260502041304 | 51 | 316 | 2.0 | 4.0 | 0.00 | 0.00 | 0.00 | 79 | 1025.2 |
| 20260502041301 | 51 | 308 | 2.0 | 4.0 | 0.00 | 0.00 | 0.00 | 78 | 1025.1 |
| 20260502041200 | 51 | 309 | 2.0 | 4.0 | 0.00 | 0.00 | 0.00 | 78 | 1025.1 |
| 20260502041109 | 51 | 319 | 2.0 | 3.0 | 0.00 | 0.00 | 0.00 | 78 | 1025.2 |
| 20260502041102 | 51 | 309 | 2.0 | 4.0 | 0.00 | 0.00 | 0.00 | 78 | 1025.1 |
| 20260502041004 | 51 | 319 | 2.0 | 3.0 | 0.00 | 0.00 | 0.00 | 78 | 1025.2 |
| 20260502041002 | 51 | 313 | 2.0 | 4.0 | 0.00 | 0.00 | 0.00 | 79 | 1025.2 |
| 20260502040959 | 51 | 319 | 2.0 | 3.0 | 0.00 | 0.00 | 0.00 | 78 | 1025.3 |
| 20260502040909 | 51 | 321 | 2.0 | 3.0 | 0.00 | 0.00 | 0.00 | 79 | 1025.2 |
| 20260502040901 | 51 | 313 | 2.0 | 4.0 | 0.00 | 0.00 | 0.00 | 79 | 1025.2 |
| 20260502040859 | 51 | 316 | 2.0 | 4.0 | 0.00 | 0.00 | 0.00 | 79 | 1025.2 |
| 20260502040809 | 51 | 321 | 2.0 | 3.0 | 0.00 | 0.00 | 0.00 | 79 | 1025.2 |
| 20260502040801 | 51 | 316 | 2.0 | 4.0 | 0.00 | 0.00 | 0.00 | 79 | 1025.2 |
| 20260502040709 | 51 | 322 | 2.0 | 3.0 | 0.00 | 0.00 | 0.00 | 79 | 1025.2 |
| 20260502040701 | 51 | 319 | 2.0 | 3.0 | 0.00 | 0.00 | 0.00 | 78 | 1025.2 |
| 20260502040609 | 51 | 322 | 2.0 | 3.0 | 0.00 | 0.00 | 0.00 | 79 | 1025.2 |
| 20260502040600 | 51 | 319 | 2.0 | 3.0 | 0.00 | 0.00 | 0.00 | 78 | 1025.3 |
| 20260502040500 | 51 | 321 | 2.0 | 3.0 | 0.00 | 0.00 | 0.00 | 79 | 1025.2 |
| 20260502040459 | 51 | 323 | 2.0 | 3.0 | 0.00 | 0.00 | 0.00 | 78 | 1025.2 |
| 20260502040402 | 51 | 321 | 2.0 | 3.0 | 0.00 | 0.00 | 0.00 | 79 | 1025.2 |
| 20260502040302 | 51 | 321 | 2.0 | 3.0 | 0.00 | 0.00 | 0.00 | 79 | 1025.2 |
| 20260502040259 | 51 | 322 | 2.0 | 3.0 | 0.00 | 0.00 | 0.00 | 79 | 1025.2 |
| 20260502040202 | 51 | 322 | 2.0 | 3.0 | 0.00 | 0.00 | 0.00 | 79 | 1025.2 |
| 20260502040113 | 51 | 321 | 2.0 | 3.0 | 0.00 | 0.00 | 0.00 | 77 | 1025.1 |